GFSFLT1_925_spd_003.txt.gz
Wind_Speed
10 8 4 3 1 2 2 3 3 5 7 8 9 9 9 10 11 11 12 14 12 10 11 13 12 11 12 13 14 13 13 13 14
8 9 5 5 2 2 3 4 5 7 8 8 9 9 11 13 14 13 13 13 13 13 13 14 14 14 14 14 15 17 17 18 18
5 7 6 4 4 4 5 6 8 9 9 8 9 10 11 13 14 14 14 14 14 14 15 15 15 16 16 16 16 18 18 20 21
3 5 6 5 6 6 8 9 9 9 9 9 9 9 11 12 13 14 15 15 14 13 13 14 15 16 17 16 18 18 20 21 21
4 4 5 5 6 8 8 7 7 7 8 9 10 11 12 13 15 15 15 16 16 15 14 15 15 16 17 18 18 19 20 21 21
5 3 2 3 5 5 6 6 7 9 12 12 13 14 16 16 16 16 16 15 15 16 17 17 18 19 20 21 21 20 21 21 22
4 2 1 3 4 6 7 9 9 9 9 9 8 11 13 14 15 15 15 15 15 16 17 19 19 19 21 22 22 24 23 23 23
3 1 1 4 6 6 5 5 5 6 7 9 11 13 12 13 14 12 13 14 14 14 14 17 18 19 20 19 20 22 23 25 25
1 1 1 2 1 1 2 4 6 9 11 13 14 15 15 15 14 14 13 12 13 12 12 12 13 15 16 17 19 21 21 20 20
4 3 2 4 3 3 4 7 10 13 15 15 16 16 16 16 13 10 10 9 10 12 12 12 13 16 15 15 13 14 13 12 11
6 7 5 4 3 5 8 12 14 14 16 17 16 15 17 12 10 10 10 11 12 12 13 15 15 16 16 15 15 15 15 14 14
4 5 5 4 6 8 11 13 14 15 17 17 16 16 14 8 11 11 11 12 13 12 14 17 17 17 15 17 16 16 16 15 14
3 4 6 7 9 12 13 15 16 16 19 20 17 19 8 6 18 11 15 13 14 13 15 17 18 15 18 17 16 17 17 16 14
8 9 9 9 10 11 12 13 15 15 21 20 20 16 2 2 8 13 18 14 17 15 19 19 19 18 18 16 17 16 15 14 13
9 10 9 9 10 10 12 13 14 11 21 17 21 10 1 4 7 16 21 17 19 19 22 23 22 21 20 19 18 17 18 18 15
10 9 8 9 10 11 13 12 14 13 22 10 16 5 7 10 7 20 22 19 21 23 23 27 25 24 22 24 22 21 19 14 17
9 9 9 9 9 10 12 13 13 11 19 11 4 4 7 3 25 15 22 16 29 27 31 28 26 23 23 28 26 23 13 14 17
8 8 8 8 9 10 11 13 15 11 14 10 9 4 3 9 5 23 9 27 15 28 30 29 24 20 29 28 25 21 14 19 19
7 6 7 8 8 9 11 12 14 13 12 8 13 9 7 3 5 6 25 11 27 26 30 27 22 30 24 25 22 14 19 21 22
6 5 6 7 7 8 10 12 13 14 13 13 13 10 13 8 3 10 10 26 25 27 24 23 32 25 27 23 15 18 22 26 28

GFSFLT1_925_spd_006.txt.gz
Wind_Speed
10 5 5 3 1 1 2 3 4 5 6 7 6 7 8 8 8 9 8 9 10 10 9 9 11 11 10 11 12 13 14 14 13
9 8 5 3 1 2 3 4 5 6 8 9 9 8 7 10 12 12 10 10 10 10 11 11 12 12 13 13 13 14 16 16 17
2 8 4 3 2 4 5 6 7 8 8 9 9 9 10 11 12 12 12 11 11 11 12 13 14 14 15 15 15 16 17 18 18
2 4 4 3 3 5 7 7 7 7 7 8 8 10 11 12 13 13 14 13 13 12 12 12 13 14 15 16 17 17 18 18 19
4 3 4 2 2 4 5 6 6 7 8 10 10 11 12 12 13 13 13 14 14 13 14 14 14 15 16 17 18 19 19 19 20
4 2 2 0 2 3 4 7 7 7 7 8 9 9 10 11 11 11 11 11 11 13 14 15 16 18 18 20 19 19 20 20 21
4 2 2 1 2 4 5 6 7 7 7 7 8 10 10 11 11 10 9 9 10 11 13 13 13 14 16 16 17 19 21 23 24
3 2 0 1 2 3 2 3 4 6 8 9 11 11 11 11 11 10 9 8 8 9 9 9 10 11 11 13 16 18 17 20 21
3 2 1 2 1 1 3 4 6 9 10 11 12 13 14 13 10 7 6 6 8 8 7 8 9 11 11 13 13 11 8 7 9
5 4 3 2 4 3 5 7 8 10 12 13 13 12 13 9 6 6 7 7 9 11 12 12 12 12 11 12 12 11 11 10 8
5 5 4 4 5 6 8 9 11 12 14 14 12 10 10 6 7 6 7 8 9 13 15 15 15 13 14 13 12 12 11 10 8
5 6 6 7 7 8 9 10 12 13 15 14 11 12 5 10 8 8 7 8 9 9 13 16 16 15 15 14 14 14 14 12 10
6 6 7 8 9 10 12 14 15 15 18 18 14 14 1 4 11 9 8 11 11 11 14 16 16 16 15 15 16 14 13 12 10
9 8 9 8 9 12 13 13 15 15 21 21 18 14 3 4 6 10 10 11 13 12 16 18 19 17 15 15 16 14 15 15 14
10 10 8 8 9 12 13 13 16 15 22 16 21 8 1 5 4 10 12 11 14 17 20 23 23 20 17 16 18 18 18 17 14
10 9 9 10 12 13 14 14 16 17 23 14 17 5 4 9 7 19 12 12 18 22 24 28 27 25 20 19 20 20 20 17 13
10 9 10 10 11 12 14 15 14 12 18 13 4 4 6 6 19 15 14 22 18 27 29 30 30 24 21 25 24 23 20 15 17
10 9 10 10 11 13 13 13 14 12 14 12 8 4 2 7 5 12 13 16 19 26 29 30 22 24 27 29 26 24 18 17 19
10 9 9 10 10 10 11 11 12 11 11 7 11 6 6 3 5 4 23 5 29 26 30 23 30 29 24 26 25 23 17 20 23
9 8 8 9 9 9 9 10 11 10 9 9 8 5 9 5 2 7 8 25 23 26 19 34 19 25 24 25 21 18 23 25 27

GFSFLT1_925_spd_012.txt.gz
Wind_Speed
6 5 4 1 3 4 5 5 5 5 5 5 5 3 5 5 5 6 7 6 8 7 9 10 10 9 10 11 11 11 13 12 12
7 7 5 1 2 3 4 5 5 5 5 5 5 5 5 5 6 6 7 7 9 8 9 10 11 12 13 13 13 13 14 14 15
4 8 4 1 1 3 4 5 4 5 5 5 5 6 6 7 7 8 8 10 10 9 9 10 12 14 15 16 16 17 16 16 16
6 6 3 1 2 3 4 4 4 3 4 5 6 7 8 6 7 8 8 11 11 10 12 13 14 16 16 17 17 17 19 20 19
3 3 3 2 1 2 3 4 5 5 5 6 6 7 7 6 6 6 7 10 9 9 10 11 12 13 13 14 15 19 20 20 21
4 4 3 2 1 0 2 4 4 5 6 6 7 7 6 6 7 6 9 9 9 9 10 10 11 11 13 14 15 15 17 18 21
6 4 4 2 2 1 3 3 4 6 6 7 9 6 8 7 8 7 10 9 9 8 8 7 5 8 10 13 13 9 11 13 14
5 3 3 2 2 2 2 3 4 6 7 7 7 8 8 8 8 7 6 5 6 5 7 9 9 9 10 12 12 12 12 12 10
6 4 4 3 2 1 2 3 4 6 7 8 8 8 8 7 5 5 3 8 10 9 9 10 10 11 11 11 11 12 11 11 11
7 6 4 3 3 1 3 4 5 6 7 8 7 7 7 5 2 1 4 7 10 11 12 11 12 12 12 11 12 12 13 13 12
8 9 7 4 3 2 3 4 5 6 7 8 7 6 4 1 1 2 3 3 6 11 12 12 12 12 12 12 13 13 13 13 13
11 10 7 5 3 3 4 4 5 7 7 7 5 5 2 1 3 2 3 3 5 5 8 11 12 13 13 13 13 14 14 15 15
14 11 7 5 4 3 4 5 5 7 8 8 6 6 4 3 3 3 3 3 4 7 9 12 14 16 16 15 14 15 16 16 17
14 10 9 6 5 4 4 5 7 9 11 9 9 6 5 6 4 2 2 4 5 6 11 16 17 18 16 14 14 14 16 17 19
14 11 10 7 6 6 5 5 7 9 12 9 6 1 4 6 4 2 4 3 5 6 10 14 14 15 13 14 13 16 19 19 20
16 13 10 8 8 7 6 4 6 9 13 8 3 2 1 5 6 6 5 4 6 9 11 15 15 14 17 15 15 18 17 19 21
16 14 11 9 9 7 7 7 5 6 10 7 5 3 2 0 6 6 6 6 9 10 18 16 15 17 15 16 18 17 18 21 22
16 14 11 10 8 7 6 7 7 6 6 8 5 2 2 11 3 4 8 8 12 17 16 15 19 15 17 15 17 16 19 21 23
15 14 12 10 8 7 6 6 5 4 5 2 4 2 3 3 5 4 10 10 17 19 18 19 21 17 15 17 17 17 21 28 28
15 13 11 10 8 7 6 5 4 3 3 3 4 4 6 6 5 9 9 19 19 19 16 21 14 16 17 18 14 20 28 26 27

GFSFLT1_925_spd_015.txt.gz
Wind_Speed
6 4 2 4 6 7 7 6 6 6 6 6 5 3 4 5 5 5 6 5 8 9 8 8 8 8 8 9 10 10 9 10 10
8 5 3 2 5 5 5 5 5 5 5 5 4 5 5 6 5 6 7 7 10 9 9 9 10 9 11 12 12 12 11 12 12
9 8 5 4 3 4 5 5 5 5 4 4 6 8 9 7 7 7 7 9 11 9 10 11 11 12 13 14 14 14 14 15 15
11 8 5 3 2 3 5 4 3 4 5 6 7 8 9 7 7 8 6 9 10 9 10 10 11 11 12 11 11 15 15 16 18
6 5 5 2 2 2 2 4 5 5 6 7 7 8 7 7 8 7 7 11 10 9 9 10 10 12 11 11 12 12 12 13 18
5 7 3 3 1 1 3 4 5 6 8 9 11 8 6 8 7 7 10 12 10 9 9 8 8 8 10 12 13 10 9 10 10
7 4 4 2 1 2 3 4 6 7 5 7 9 7 8 7 8 7 11 10 9 8 7 9 9 9 10 12 14 14 14 13 11
7 4 3 2 3 1 3 4 4 6 6 7 7 8 9 8 7 6 9 8 5 8 10 10 11 12 12 12 13 14 14 14 14
8 6 5 4 3 2 2 3 5 6 7 8 8 8 8 6 5 4 4 9 9 10 10 11 12 12 12 13 14 14 15 15 14
8 7 6 5 3 2 3 4 5 7 8 8 8 7 6 5 2 2 2 5 9 11 11 11 11 12 12 12 13 14 14 14 15
9 8 7 5 4 3 3 4 6 7 8 8 7 6 5 3 1 1 0 0 1 4 9 10 11 12 12 12 13 13 13 14 14
11 10 8 6 4 3 3 4 5 6 7 7 6 5 4 2 1 1 1 4 6 6 6 8 10 12 13 13 13 13 13 14 15
11 10 8 6 5 3 3 4 4 6 7 7 6 6 4 3 2 1 1 1 2 8 11 12 13 14 14 13 13 13 14 15 16
15 13 9 7 6 4 4 4 5 6 8 8 7 5 3 4 3 2 2 4 4 5 8 14 13 17 13 13 13 13 15 17 17
15 11 11 8 6 5 4 5 5 7 10 8 5 2 2 4 5 4 5 5 5 6 9 13 12 12 12 14 12 13 16 16 17
16 13 11 9 8 6 4 4 5 7 12 6 6 3 2 4 6 5 6 5 6 7 9 13 13 13 14 11 13 15 14 15 18
17 14 13 10 10 7 6 6 3 5 9 6 6 2 3 3 3 9 7 8 6 8 13 13 13 15 14 14 15 14 15 16 19
17 14 13 12 9 8 6 5 5 4 5 6 4 2 2 8 3 3 7 8 10 13 16 15 15 18 14 14 15 14 16 17 25
17 14 14 11 9 8 6 4 4 3 3 1 3 1 3 2 4 2 10 13 12 18 18 18 20 18 16 15 16 16 15 24 25
16 14 14 12 9 8 6 5 4 3 2 2 2 3 5 8 6 8 8 17 17 18 17 17 19 15 15 16 17 16 21 26 27

GFSFLT1_925_spd_018.txt.gz
Wind_Speed
8 8 7 8 9 8 8 8 8 8 7 6 6 5 5 5 7 4 5 2 6 10 6 6 6 6 6 7 7 7 7 7 8
8 5 5 6 7 7 7 8 7 9 8 5 6 7 6 7 7 4 4 5 7 8 7 8 8 8 8 8 9 9 8 9 10
12 8 6 6 5 6 7 7 6 6 5 5 7 8 8 6 7 5 3 4 8 8 8 8 9 10 10 9 9 11 10 10 12
14 10 7 5 4 5 6 6 5 5 6 7 8 9 8 9 9 5 4 8 9 8 7 8 9 10 10 11 10 9 9 10 12
11 8 7 5 4 4 4 5 5 6 8 10 11 7 8 8 6 6 6 8 9 8 8 8 8 8 11 14 14 12 10 8 7
9 10 7 5 4 4 4 5 7 7 7 9 10 9 6 5 6 7 8 9 9 8 7 8 9 10 12 13 14 14 14 14 12
12 8 6 5 4 4 4 6 7 4 4 6 6 7 8 5 8 5 8 10 7 9 12 12 12 11 11 12 14 13 14 13 13
10 6 8 7 6 5 5 5 3 6 7 7 6 7 6 6 6 5 7 10 9 9 11 11 12 11 11 12 13 13 13 13 13
12 7 9 10 6 5 4 3 4 5 5 6 8 7 6 5 4 4 4 10 10 10 10 11 11 11 11 11 12 12 12 12 12
13 12 10 8 7 7 4 2 1 3 7 6 7 6 5 3 4 3 2 5 8 9 10 10 11 11 11 11 11 12 12 12 12
15 13 10 9 7 5 3 1 3 4 5 5 5 4 4 1 3 4 4 1 3 4 6 9 10 11 12 11 11 11 12 13 14
14 12 12 9 8 4 3 2 2 3 4 4 5 5 3 1 2 4 5 5 6 7 8 9 10 11 12 12 12 12 11 13 14
14 14 13 9 8 5 3 4 3 4 5 5 4 4 3 2 3 4 4 2 4 7 10 12 12 11 13 12 13 12 12 14 15
17 18 14 10 8 7 4 5 4 6 8 5 5 5 2 5 4 3 1 5 6 6 7 11 11 12 12 14 14 12 14 14 14
21 19 15 12 9 8 7 6 6 8 9 4 4 1 2 4 5 3 1 6 6 5 8 9 14 13 12 14 11 13 13 13 15
22 19 16 13 11 9 6 6 6 9 10 5 4 4 2 5 5 7 6 3 3 4 7 13 16 13 15 14 13 14 14 14 15
25 22 19 16 14 10 8 7 5 6 11 5 2 3 1 2 3 6 3 4 7 5 11 16 16 14 17 18 14 12 14 16 16
24 22 20 18 14 12 9 7 7 5 5 8 4 2 1 5 1 2 2 7 6 10 15 16 16 19 22 14 14 14 16 15 18
24 22 21 18 15 12 10 7 7 6 4 3 3 2 1 1 4 2 9 9 13 16 17 22 23 20 22 16 17 17 16 18 23
24 23 21 18 15 12 9 8 6 5 4 2 1 0 2 6 5 4 4 19 23 20 20 17 22 25 22 20 21 19 17 21 26

GFSFLT1_925_spd_021.txt.gz
Wind_Speed
14 11 11 12 11 10 9 9 9 9 9 8 8 7 5 7 6 4 3 4 4 6 5 4 4 3 2 5 5 5 6 5 5
12 9 10 10 10 9 10 9 10 9 8 7 6 5 4 4 7 5 3 4 4 5 4 5 6 6 4 5 6 8 7 8 7
13 11 10 9 9 9 10 9 8 7 6 6 6 6 6 8 6 4 3 2 4 4 4 5 6 7 7 7 7 8 6 9 9
15 12 10 8 8 9 9 8 6 6 7 7 6 6 6 5 3 4 4 4 5 4 4 5 6 7 10 12 12 9 6 6 4
14 12 9 7 8 8 7 7 6 8 8 10 8 6 7 6 2 3 4 5 6 5 4 5 8 9 11 12 13 12 12 11 10
13 10 9 7 8 8 6 6 7 5 4 6 4 3 4 4 3 3 5 7 6 9 10 11 12 11 12 13 12 12 12 12 12
13 11 8 8 7 7 7 7 5 3 3 3 2 4 5 4 4 5 7 7 11 10 13 12 11 11 11 12 11 12 12 12 12
12 11 11 9 8 8 7 6 2 3 3 3 4 3 3 3 3 5 6 11 8 9 10 12 11 10 10 11 11 11 11 12 11
15 11 12 11 9 7 7 6 4 2 1 2 3 3 3 3 3 4 4 11 10 10 10 11 10 10 10 10 10 10 10 11 11
17 14 15 13 11 10 7 6 3 1 2 2 3 3 3 2 3 5 4 7 9 9 9 10 10 10 10 10 10 10 10 11 11
16 19 20 16 13 10 7 4 1 1 1 3 3 2 4 1 4 5 5 4 5 6 8 9 9 10 11 11 11 11 10 11 11
22 22 17 13 11 10 7 4 2 1 1 2 4 2 2 3 5 7 6 5 4 5 7 9 9 10 11 11 11 10 10 12 12
24 20 17 14 11 9 6 5 3 1 2 2 2 2 3 6 7 5 4 1 2 4 6 7 8 10 10 11 11 10 11 11 11
22 19 19 16 13 9 6 6 3 3 3 3 2 2 6 8 7 4 1 3 3 4 5 8 10 12 10 12 11 11 13 11 11
21 21 20 18 15 11 8 6 5 5 4 1 2 3 6 9 6 6 3 2 2 4 6 8 12 15 10 11 12 12 10 11 12
25 25 22 18 16 14 10 8 6 6 5 2 4 4 4 5 5 5 6 3 1 3 7 10 15 17 15 16 14 11 10 12 13
28 28 24 22 19 15 13 10 7 5 9 3 2 2 1 1 3 4 5 3 2 3 7 11 15 17 19 18 12 10 12 13 14
31 29 26 24 20 18 14 10 7 6 6 8 3 2 1 3 1 3 5 2 1 5 9 14 17 18 18 22 19 15 12 15 14
31 29 27 24 22 19 15 12 9 8 7 4 5 4 2 2 3 2 4 3 7 15 20 17 15 19 22 20 20 17 14 16 17
31 29 27 25 22 20 17 14 11 9 8 6 3 2 2 3 2 3 5 12 21 19 14 23 17 16 17 18 18 17 15 19 21

GFSFLT1_925_spd_024.txt.gz
Wind_Speed
12 12 12 11 10 9 10 9 10 10 9 8 8 6 4 3 3 6 5 3 3 3 2 3 2 2 2 3 4 5 5 5 5
13 11 11 10 9 8 9 11 11 10 8 7 6 4 3 4 5 9 6 3 3 4 3 4 8 7 5 4 3 5 7 7 7
13 11 10 9 9 9 9 9 8 7 7 6 6 5 6 5 5 5 5 3 4 3 3 5 6 6 7 6 6 3 6 3 9
13 11 10 9 9 8 8 8 7 6 8 6 5 5 4 4 5 4 3 4 4 3 3 4 5 9 10 11 12 11 12 10 9
15 13 10 9 9 9 7 7 7 8 7 7 7 5 5 4 5 3 3 3 4 3 4 6 9 11 10 10 12 12 12 12 13
17 14 11 9 9 8 7 6 6 5 5 3 5 2 1 2 2 3 4 5 8 10 11 11 11 11 11 10 12 12 12 12 13
16 13 11 10 9 8 7 6 4 3 3 2 2 2 0 2 4 6 8 10 11 9 9 8 10 9 10 10 11 11 12 12 12
17 15 13 12 11 10 9 7 3 2 2 1 1 2 1 3 5 6 9 8 8 7 7 9 9 9 9 9 10 10 11 11 11
18 16 14 13 12 11 10 7 5 4 1 1 1 0 2 5 8 7 7 11 11 9 9 9 9 8 8 8 9 9 9 10 11
20 17 16 15 14 12 11 9 6 4 2 1 2 1 3 7 8 7 8 10 10 9 8 8 8 8 8 8 8 8 8 9 10
24 19 18 17 15 14 11 9 6 4 3 3 4 2 4 6 9 9 8 7 7 8 8 7 7 8 8 8 9 8 8 10 10
22 23 21 18 18 15 11 8 6 4 3 3 4 4 4 6 9 9 8 7 5 6 6 7 7 9 9 10 9 8 10 10 10
23 24 25 22 18 14 11 9 6 4 3 4 4 5 4 8 10 8 6 4 2 1 2 3 5 8 8 10 9 8 10 9 9
26 28 27 22 18 14 11 10 7 4 3 6 5 2 7 9 10 9 5 3 2 0 3 5 7 10 9 9 9 9 10 8 9
30 29 26 21 18 15 13 11 8 4 4 6 7 5 7 9 9 8 6 5 3 2 3 6 9 12 12 12 11 10 8 8 9
32 29 25 22 20 18 15 13 9 5 6 8 7 5 6 8 8 8 8 8 5 2 1 6 10 14 12 14 11 9 8 9 10
34 30 27 24 22 20 18 15 11 5 4 3 4 1 1 5 6 6 9 7 6 3 2 6 10 11 11 13 14 10 9 10 13
35 32 30 27 25 24 20 16 12 9 5 4 3 2 3 0 3 6 7 7 6 0 7 11 10 12 14 15 13 13 9 12 14
37 35 32 30 27 24 21 17 14 11 9 5 4 3 3 2 1 4 8 6 5 10 15 12 16 11 11 12 12 12 12 14 16
38 35 32 30 28 24 22 20 16 12 11 7 5 3 3 3 3 2 4 6 11 17 10 15 13 9 12 11 9 9 11 15 18

GFSFLT1_925_spd_027.txt.gz
Wind_Speed
11 11 10 10 9 8 8 8 8 8 7 7 6 4 3 3 4 5 6 5 3 4 4 5 5 5 3 4 6 6 5 5 5
11 10 10 9 8 7 7 8 9 8 7 5 4 3 2 3 6 7 5 3 4 5 4 5 8 6 6 6 6 9 9 7 8
11 10 9 8 8 8 8 7 6 6 5 4 3 3 4 5 7 6 5 3 4 4 3 5 6 9 12 13 13 11 7 10 5
12 11 9 8 8 8 7 6 5 5 5 3 3 3 3 3 4 4 3 3 4 3 3 4 7 10 12 13 13 13 12 12 13
13 12 10 9 9 8 8 6 6 6 5 4 3 3 3 3 3 3 2 3 3 3 4 7 11 11 9 11 11 11 12 14 13
15 13 11 10 10 8 7 6 6 5 2 3 2 1 1 1 1 2 4 6 8 11 12 11 11 11 10 9 10 10 10 11 12
18 14 12 10 10 9 8 7 6 4 3 1 1 2 1 2 4 6 9 9 10 9 8 9 10 7 8 8 10 10 11 11 11
18 16 13 12 11 11 10 8 6 4 3 2 1 1 0 4 6 8 8 8 7 5 5 9 9 8 8 8 8 10 10 10 11
20 18 15 13 13 11 11 8 5 5 3 2 1 1 3 6 8 8 9 10 10 9 9 8 8 8 8 8 8 9 9 10 10
21 19 16 15 14 13 12 10 7 5 3 2 2 2 5 8 8 7 8 9 10 9 8 7 8 8 7 8 8 8 9 9 9
22 20 18 17 15 13 12 10 7 6 4 4 4 4 6 8 8 8 8 7 7 7 7 7 7 7 7 7 7 7 9 8 8
24 23 20 18 16 15 13 10 8 6 5 6 6 5 7 8 9 7 7 7 6 6 6 6 7 6 6 7 6 6 8 7 7
24 25 22 20 18 17 14 10 8 6 6 7 6 6 7 10 10 9 7 6 4 3 2 3 4 6 6 7 6 7 8 6 7
26 26 25 23 21 18 15 12 9 7 5 6 7 5 7 11 12 10 7 5 3 2 1 2 4 6 6 8 8 8 7 6 6
28 27 26 26 23 19 17 13 10 8 7 8 8 5 7 10 11 10 8 7 5 3 1 2 5 7 8 9 9 8 7 7 8
32 29 29 29 27 23 18 15 12 8 9 9 6 4 5 9 10 11 9 9 7 5 3 4 6 8 9 9 9 11 8 9 8
36 34 29 30 27 23 21 19 15 6 12 5 5 1 2 7 8 10 10 11 9 7 4 5 8 8 10 12 12 10 9 9 11
39 38 34 33 32 28 25 22 18 12 9 10 5 2 4 2 5 7 10 11 10 6 4 7 10 11 10 9 9 8 9 11 13
39 40 39 36 34 30 27 25 22 17 14 9 7 4 4 3 1 5 8 10 11 7 8 10 9 9 8 8 8 9 9 11 14
39 43 42 40 37 32 28 27 23 20 17 12 9 6 4 4 3 2 3 11 13 11 9 12 9 6 7 9 10 11 13 15 16

GFSFLT1_925_spd_030.txt.gz
Wind_Speed
12 12 11 11 10 9 9 9 9 9 9 8 6 4 4 4 5 6 7 7 6 6 6 10 10 9 2 4 5 5 6 5 4
11 11 11 11 9 9 9 10 10 9 7 5 4 4 3 4 6 6 5 7 7 7 8 9 8 10 10 10 12 6 7 5 8
11 10 10 9 10 8 9 8 8 6 5 4 4 4 5 7 7 5 5 7 6 5 5 7 10 11 12 13 12 13 13 14 16
10 9 9 9 9 9 8 7 5 5 4 4 5 5 5 5 6 5 5 6 5 4 5 7 11 12 12 13 12 13 12 11 11
9 8 7 8 9 7 7 6 5 5 4 5 6 6 5 5 4 4 4 5 4 4 8 12 13 13 12 11 12 12 13 13 13
10 8 7 7 7 7 6 5 5 4 3 3 3 3 2 2 2 4 7 8 12 12 13 12 14 12 9 10 11 12 12 12 12
14 10 9 7 7 6 5 6 5 3 2 1 1 2 2 3 4 6 10 11 12 11 12 13 12 9 9 9 10 11 11 12 12
17 13 11 9 9 9 7 6 5 3 2 1 1 1 2 6 8 10 8 7 6 6 3 7 10 9 9 8 9 10 10 11 11
19 15 13 11 11 10 9 7 5 3 2 1 1 1 4 6 8 10 10 11 11 10 9 9 9 8 8 8 8 8 8 9 10
20 17 15 13 12 11 10 8 6 5 3 2 1 3 6 8 9 9 7 9 11 9 8 8 7 7 7 7 7 8 9 9 8
21 20 18 15 14 13 11 10 8 6 4 4 3 5 8 9 8 8 8 8 8 8 8 8 8 7 7 7 7 8 8 8 8
23 22 20 18 17 15 13 12 9 7 6 6 5 7 8 9 9 8 8 8 8 8 8 7 7 6 6 6 5 6 8 6 7
26 25 23 20 19 18 16 14 11 9 8 7 8 8 9 10 10 10 8 8 7 6 5 5 6 6 6 6 6 6 6 5 6
30 27 25 23 22 21 19 16 13 10 8 9 8 7 8 11 11 10 9 8 6 6 4 3 2 3 4 6 7 6 6 4 5
30 27 26 26 25 23 21 18 14 11 10 9 8 6 8 11 12 11 10 9 7 6 4 2 1 2 3 5 6 6 7 6 7
32 29 28 29 29 27 25 20 15 12 13 12 6 5 7 10 12 12 11 10 9 8 7 5 5 6 8 9 9 8 8 7 8
35 34 33 32 32 31 26 24 19 11 18 7 6 1 2 8 11 12 13 13 11 10 8 6 7 8 11 12 11 10 7 8 9
38 38 36 35 35 34 33 29 24 17 19 13 6 2 4 3 7 10 12 13 14 12 9 8 9 10 9 8 7 7 8 9 11
41 41 41 39 40 38 36 32 29 24 19 17 15 6 5 3 1 6 10 14 15 13 9 8 9 8 7 6 5 7 8 10 12
41 42 42 44 44 42 39 36 33 28 24 18 13 9 7 6 3 2 5 13 15 15 12 10 8 8 6 7 8 8 12 14 17

GFSFLT1_925_spd_036.txt.gz
Wind_Speed
9 9 11 9 7 6 7 8 8 8 8 6 6 6 6 8 6 6 7 7 7 8 9 9 9 10 11 7 4 9 2 7 2
10 10 10 9 8 8 9 9 8 7 6 4 4 4 4 5 4 4 5 5 6 6 8 10 13 13 14 14 15 15 17 20 4
10 10 10 10 9 9 10 8 6 5 4 3 4 4 6 5 4 3 3 5 4 5 6 10 11 13 12 11 12 13 13 15 18
11 11 10 10 9 10 9 7 5 5 4 4 4 5 6 3 3 3 2 3 2 4 10 13 12 12 11 11 11 10 12 10 13
11 10 11 11 10 9 9 6 5 5 5 6 5 5 5 3 2 2 1 2 3 9 11 13 11 10 11 12 11 11 11 11 12
11 11 11 12 11 9 8 6 6 5 5 5 4 4 1 1 1 2 4 11 13 13 12 11 10 11 10 11 11 11 11 12 12
11 11 11 12 10 10 8 7 7 5 4 3 2 2 2 1 1 3 9 11 11 11 11 10 9 10 10 10 10 10 10 11 11
12 10 10 10 10 8 9 8 6 5 4 4 3 2 2 2 4 7 10 12 10 9 9 8 9 9 9 8 9 9 10 10 10
15 14 13 12 12 11 10 8 7 6 5 5 4 4 4 5 6 7 10 11 9 7 7 8 8 9 8 8 8 8 8 9 9
16 15 15 14 12 12 11 9 8 7 6 5 5 5 5 6 7 7 11 9 8 8 8 7 7 7 6 7 7 7 7 8 8
17 16 16 15 14 13 12 11 9 8 6 5 5 6 6 7 8 8 7 9 8 9 8 7 6 6 5 5 5 6 6 6 6
17 17 17 16 15 14 13 12 10 9 7 6 6 7 7 8 8 9 7 7 9 9 9 8 7 5 5 3 2 3 3 3 4
20 20 18 17 16 16 14 13 12 10 9 7 7 8 9 9 9 9 9 9 8 10 9 8 7 6 4 3 2 2 3 2 3
23 22 21 20 19 18 16 15 13 12 10 9 8 9 10 11 11 11 11 10 10 9 12 11 8 7 4 2 2 2 3 3 4
26 24 22 22 21 19 18 17 15 13 11 9 8 8 10 11 11 12 12 11 12 11 9 9 7 9 8 6 4 3 4 5 5
27 27 26 26 25 23 21 19 17 13 13 9 7 7 9 12 13 14 14 13 13 12 11 9 8 8 9 8 8 9 6 5 6
30 30 29 28 26 25 24 22 18 14 19 11 9 4 8 13 16 16 17 16 14 13 13 11 10 8 6 8 9 9 7 4 6
31 31 31 30 29 30 30 29 25 20 21 20 8 4 6 10 12 17 17 17 16 14 14 13 11 9 7 7 5 8 7 4 5
31 30 30 30 32 30 34 34 35 24 20 18 20 10 4 4 4 12 17 17 18 17 15 14 12 10 8 9 9 9 7 6 6
32 31 30 31 35 35 32 32 34 33 26 24 13 14 10 7 5 4 10 17 19 18 17 15 14 12 10 8 9 10 8 7 10

GFSFLT1_925_spd_039.txt.gz
Wind_Speed
11 10 10 9 8 7 7 8 9 9 7 7 7 7 8 7 7 7 9 8 9 10 10 15 14 15 20 12 16 16 15 4 4
10 10 9 8 7 7 8 9 8 7 5 5 5 5 6 5 5 6 7 8 8 9 10 12 11 13 15 14 14 16 21 21 12
9 10 9 9 8 9 9 7 6 5 4 4 5 6 8 4 5 5 5 7 6 6 8 11 11 11 13 13 13 13 15 16 16
9 9 9 8 9 8 7 5 5 4 4 4 5 6 7 5 4 3 4 3 4 6 11 11 11 8 11 12 13 13 13 13 14
8 9 11 8 7 8 7 5 4 4 5 4 5 5 6 3 2 2 2 3 3 10 12 11 11 10 11 11 10 11 12 13 13
8 8 10 11 10 8 7 4 4 4 4 4 5 5 1 1 1 3 4 10 14 13 11 8 9 9 10 11 11 11 12 13 13
9 9 11 11 10 9 7 5 5 5 1 1 3 2 1 0 1 5 9 11 10 9 8 9 9 9 10 10 10 10 11 11 12
12 9 10 10 10 7 8 8 6 5 4 3 3 2 2 2 2 6 9 11 10 9 8 8 8 8 9 9 9 10 10 10 11
13 12 12 13 12 11 9 8 7 6 5 5 4 3 3 3 5 8 9 11 9 7 7 7 7 8 8 8 8 9 9 10 10
16 14 15 13 12 13 12 10 9 8 7 6 5 4 5 5 6 7 11 10 8 8 8 7 7 7 7 7 8 8 8 8 8
17 17 18 18 14 13 13 12 11 10 8 7 6 6 6 7 8 7 10 10 8 8 8 8 7 6 6 5 6 6 6 7 7
18 18 18 21 20 15 14 14 13 11 10 9 8 8 8 8 9 8 8 9 10 9 9 8 8 7 6 5 3 3 3 4 5
22 21 19 23 21 17 16 15 14 13 12 11 10 9 9 9 10 10 10 10 9 12 11 10 8 7 6 5 3 3 1 1 2
24 24 21 22 23 21 18 18 17 15 14 12 11 11 11 12 12 12 12 12 12 11 14 14 12 10 7 5 4 2 1 1 2
26 24 23 23 24 23 21 20 19 18 16 13 11 11 11 12 14 14 14 14 15 13 12 16 13 13 10 9 7 5 3 3 4
27 27 25 25 25 26 24 22 21 18 16 12 9 9 11 13 15 16 16 17 17 16 15 12 12 14 14 12 10 8 7 4 4
28 30 28 29 28 27 27 27 22 21 23 13 12 4 9 16 19 18 18 18 19 19 18 16 15 12 9 10 11 10 9 6 4
29 29 29 28 29 29 29 29 28 23 23 21 8 4 5 9 16 20 19 20 20 20 19 18 16 15 13 14 12 12 10 8 4
30 31 32 32 30 30 32 33 32 25 22 21 25 10 4 3 3 13 20 20 21 20 20 19 18 17 15 12 13 11 9 8 5
30 30 30 34 33 32 30 31 35 34 25 27 17 18 14 11 3 3 9 20 22 21 21 20 18 17 15 14 14 13 10 8 5

GFSFLT1_925_spd_042.txt.gz
Wind_Speed
11 11 11 10 10 9 9 11 11 11 10 10 11 12 10 13 9 9 9 7 11 11 16 17 18 20 16 17 19 22 13 8 6
9 9 9 8 8 8 10 10 9 9 8 8 9 10 9 11 8 7 5 10 10 11 12 13 12 14 14 15 17 18 20 19 19
10 10 9 9 9 10 10 9 8 7 6 7 8 10 7 9 6 3 4 8 8 9 10 12 12 12 11 12 13 13 13 14 14
10 11 10 10 10 10 8 7 6 6 6 6 8 9 10 8 7 7 5 6 7 10 11 12 12 11 11 12 13 12 12 12 12
9 10 11 9 10 9 6 5 5 5 5 6 7 9 7 5 6 0 2 6 9 12 12 11 10 10 10 11 12 12 13 13 13
7 9 8 9 8 8 6 4 5 5 5 5 7 7 6 3 2 0 4 10 14 12 9 7 8 9 10 11 11 11 12 13 13
9 9 11 11 9 8 6 5 5 5 3 2 5 5 3 2 2 4 12 12 10 8 7 8 9 9 9 10 10 11 12 12 13
15 13 11 13 12 10 9 7 7 7 5 4 2 4 5 2 5 7 9 10 10 9 9 8 9 9 9 9 9 10 10 12 12
15 13 11 14 12 11 9 7 7 7 11 7 6 4 5 5 9 9 12 11 10 8 8 8 9 9 8 9 8 9 10 10 12
16 16 15 12 17 13 16 10 11 12 10 9 9 8 8 8 10 11 14 12 9 8 8 9 9 8 9 8 8 8 9 8 9
23 20 19 18 15 14 16 14 14 12 12 12 10 10 10 10 9 11 14 15 12 10 10 10 10 9 8 8 7 7 7 7 7
19 21 27 25 22 15 18 17 17 16 16 14 13 13 13 14 11 12 11 16 14 11 11 11 10 10 9 7 6 5 5 5 5
23 21 21 25 24 24 17 20 19 19 19 18 16 16 15 15 17 12 13 13 16 15 14 13 12 11 10 8 6 6 4 3 1
28 25 23 23 24 26 26 22 23 21 20 19 18 17 17 17 17 19 13 13 14 15 18 17 15 13 11 9 8 6 4 3 1
28 29 26 25 27 28 29 26 24 23 23 20 17 17 16 17 19 20 20 18 17 17 17 20 19 18 13 11 10 8 5 4 3
30 32 32 28 29 32 32 30 25 25 22 19 13 13 18 18 20 22 21 24 23 19 20 18 21 20 18 16 14 11 8 6 5
31 35 36 36 33 30 34 33 29 28 27 19 12 3 9 22 25 22 24 26 26 26 22 20 20 19 18 19 17 14 11 8 6
23 30 35 37 35 36 33 36 35 27 31 30 11 3 5 5 19 30 27 27 28 28 28 25 22 20 18 17 17 15 14 10 7
29 32 30 32 34 33 35 35 39 29 30 32 33 15 8 4 2 14 30 28 28 29 30 29 26 26 24 21 19 17 14 13 10
27 23 35 32 33 34 30 35 35 41 31 32 28 34 19 13 3 3 10 26 30 29 30 30 29 28 26 24 21 19 16 13 12

GFSFLT1_925_spd_045.txt.gz
Wind_Speed
14 14 14 13 12 10 11 13 12 12 13 14 15 13 13 10 11 9 7 11 11 14 15 17 18 17 16 18 22 19 8 7 9
12 12 11 10 10 9 11 11 11 10 11 12 12 10 9 10 9 7 6 11 11 11 12 12 8 11 13 13 14 14 15 16 19
12 11 10 9 9 10 11 10 10 9 9 10 11 8 7 10 5 4 6 9 8 9 10 11 11 10 11 12 11 10 9 8 12
12 12 11 11 11 10 9 9 8 8 9 10 11 9 10 7 5 5 5 7 9 11 11 11 12 11 11 12 12 11 9 11 11
12 13 12 12 12 10 8 7 7 8 9 10 11 9 6 6 4 2 1 7 12 12 9 10 10 11 11 11 12 11 11 13 13
12 13 12 12 11 10 8 7 7 7 7 8 11 8 6 4 3 1 5 13 12 8 7 8 9 10 11 11 12 11 11 13 13
11 12 11 12 11 10 9 8 8 8 7 7 9 7 6 6 5 4 14 14 11 7 6 6 9 10 10 11 11 11 11 13 13
13 13 14 14 13 13 11 10 10 9 8 7 8 7 6 7 8 10 15 13 10 9 8 8 9 10 10 10 10 10 11 11 12
18 15 14 15 15 14 12 12 11 11 9 10 9 8 11 8 12 12 12 12 11 10 9 9 10 10 10 10 10 11 10 10 11
23 18 14 14 15 15 14 11 10 12 12 13 11 11 11 10 14 15 14 14 13 11 9 10 11 10 10 10 10 10 9 9 10
24 19 18 17 15 14 17 16 14 16 15 15 14 13 12 13 15 16 16 15 15 13 12 12 12 11 10 10 10 10 9 9 9
25 23 21 20 20 15 20 21 19 17 17 17 16 15 15 16 15 17 17 17 17 16 14 13 13 13 12 11 10 10 9 8 8
23 26 27 26 26 24 21 18 22 21 21 20 18 17 17 18 17 17 18 17 18 18 16 17 16 15 14 13 11 10 10 8 8
30 27 25 26 27 30 28 26 23 24 24 22 20 20 20 20 21 20 20 19 19 19 20 20 20 18 16 15 13 12 10 10 7
30 33 32 29 28 29 32 32 29 28 27 23 22 21 22 22 23 24 23 22 22 20 21 23 24 22 19 16 15 13 11 10 9
31 34 34 34 33 34 34 33 34 31 29 20 19 19 22 25 27 26 27 27 26 24 24 23 26 25 23 19 17 15 13 11 10
28 33 38 37 38 35 35 36 33 33 30 16 5 2 10 26 29 29 29 31 29 29 29 27 26 27 27 24 20 17 15 13 12
29 32 33 37 38 39 39 38 37 29 33 33 14 2 6 3 19 37 33 33 33 34 32 30 29 27 28 26 24 21 18 14 13
25 25 27 35 37 43 40 37 40 36 30 31 38 25 6 4 3 12 32 32 34 36 35 34 32 30 28 27 24 21 19 16 14
24 24 26 25 31 36 38 38 32 41 29 30 29 33 20 11 3 4 5 27 34 34 36 37 35 32 29 28 26 22 18 15 13

GFSFLT1_925_spd_048.txt.gz
Wind_Speed
15 17 15 13 11 10 12 12 13 14 16 14 12 10 9 13 11 9 9 10 11 13 13 15 13 13 14 18 16 8 10 13 6
14 15 12 10 9 9 11 11 11 12 14 13 11 8 9 10 8 5 8 10 9 10 11 9 5 7 9 11 11 12 12 16 19
13 13 12 10 9 10 11 10 10 11 12 12 10 7 10 9 6 5 8 8 7 7 7 7 6 8 8 9 9 6 7 8 13
12 12 11 11 11 11 10 9 9 10 11 12 10 9 9 6 5 5 5 9 9 9 7 8 8 8 8 8 9 7 5 7 8
12 11 11 11 11 10 10 9 9 9 11 12 11 10 7 6 6 4 3 10 12 9 6 7 7 8 8 9 9 9 10 10 10
11 12 11 10 10 9 7 7 7 8 9 11 11 8 7 7 5 4 6 13 13 7 7 7 7 8 8 9 9 10 10 11 11
12 12 11 11 10 8 7 6 7 7 8 9 11 8 7 7 6 4 11 14 11 7 7 6 7 8 8 9 9 10 11 11 12
13 13 13 12 12 11 10 9 9 8 7 8 9 8 8 8 7 6 15 14 10 8 7 7 8 8 8 8 9 10 10 11 11
14 15 14 13 14 14 14 13 10 11 10 9 9 9 9 9 10 10 14 13 10 9 9 8 10 9 9 8 9 9 10 10 11
17 17 16 16 17 18 17 15 14 15 14 12 12 12 12 12 13 15 15 14 12 11 10 9 10 9 10 10 10 10 10 10 10
21 22 22 20 18 17 18 17 16 14 15 15 15 16 15 14 14 18 18 16 15 14 12 11 12 11 11 11 11 11 10 10 10
23 23 27 25 20 19 19 18 19 20 19 20 18 18 17 18 17 19 20 19 18 17 15 14 14 14 13 12 12 12 12 11 10
26 26 29 28 25 24 23 22 23 24 24 24 22 21 19 20 21 20 22 23 22 20 19 18 17 17 15 14 14 13 12 11 10
27 30 29 30 28 27 28 26 24 25 27 27 24 24 23 22 23 24 24 26 25 23 22 22 21 20 19 17 15 14 14 13 11
31 32 31 31 30 30 32 33 32 29 28 28 26 25 25 24 26 27 27 28 28 26 25 24 25 25 22 19 18 16 15 14 13
31 33 34 32 32 34 34 34 35 35 32 22 24 26 27 27 29 29 30 32 31 30 28 27 27 28 27 23 20 19 17 15 14
28 26 31 35 36 38 37 34 34 37 34 18 3 3 11 29 34 33 33 34 33 35 33 31 29 29 30 29 24 21 19 17 15
27 27 27 30 32 38 42 40 37 29 27 31 13 1 6 2 13 35 38 38 36 36 36 34 33 30 30 30 29 26 21 18 16
24 26 27 27 27 33 37 39 40 34 25 25 35 25 4 4 4 9 21 36 33 35 35 35 36 35 34 32 32 30 26 18 16
17 21 26 25 24 27 28 33 35 36 30 30 20 34 22 10 5 4 5 11 28 36 34 36 38 38 37 35 31 30 27 19 17

GFSFLT1_925_spd_051.txt.gz
Wind_Speed
16 15 11 10 7 8 10 11 12 13 12 10 7 6 8 9 8 8 8 9 10 12 12 10 7 11 15 13 6 8 13 10 7
15 14 11 8 6 8 10 10 11 12 11 8 6 5 8 7 6 4 7 8 8 7 6 5 3 6 7 8 8 9 11 16 11
11 12 9 7 6 7 8 8 9 9 9 7 4 4 7 5 2 3 6 6 5 5 4 4 2 4 4 3 4 3 4 7 13
10 10 8 7 6 7 6 6 6 7 8 7 4 5 6 3 2 2 3 5 4 4 4 5 5 5 5 5 4 3 2 4 5
11 10 9 8 7 7 6 5 5 6 6 7 4 5 4 4 3 2 1 6 8 4 3 2 3 4 5 5 5 5 5 4 5
12 12 11 10 8 7 6 5 5 5 6 8 7 5 5 5 5 4 3 8 9 4 3 2 2 4 4 5 6 6 6 6 6
11 11 11 11 10 9 7 6 6 5 6 7 9 8 6 6 6 5 5 9 7 5 5 3 3 4 4 5 6 6 7 6 7
11 11 12 12 12 11 10 8 8 8 8 9 10 10 9 9 8 6 7 11 9 7 6 5 4 5 5 5 6 5 6 5 6
14 14 13 13 13 12 12 12 10 10 11 10 10 11 10 9 10 8 10 14 11 8 7 7 7 7 6 6 6 6 6 6 6
15 15 15 15 14 14 14 15 14 14 14 14 14 14 13 13 12 12 14 15 15 11 10 9 9 8 8 8 7 7 6 6 6
17 18 18 18 16 15 16 17 17 17 16 17 16 16 16 16 14 15 17 18 18 16 12 11 11 10 10 10 10 9 8 8 7
20 21 21 21 20 19 19 18 19 20 19 19 18 19 18 19 18 17 18 20 20 18 15 13 13 13 11 11 11 11 10 9 8
23 24 25 23 24 25 24 23 23 23 23 23 23 22 21 21 21 21 20 22 23 22 20 18 16 15 14 14 13 12 12 11 10
28 28 27 26 27 29 29 28 27 27 28 27 27 26 26 24 23 24 23 24 25 26 24 22 21 20 18 16 16 15 14 14 12
27 30 30 30 29 30 31 31 31 30 30 28 29 27 28 27 28 28 26 27 27 28 28 26 24 23 22 19 18 17 17 16 14
28 30 31 32 31 31 30 32 32 33 33 27 24 28 29 29 31 31 31 32 32 31 31 30 27 25 26 26 22 20 19 17 16
30 28 29 30 32 32 32 32 30 32 30 13 5 3 8 24 32 34 35 37 34 33 34 33 31 29 28 29 28 24 22 20 18
27 27 26 26 26 27 30 32 33 27 23 24 13 1 4 3 9 20 29 37 37 35 34 34 34 32 30 30 32 30 26 23 20
18 20 22 24 24 26 27 27 30 29 22 19 25 29 14 4 3 7 14 16 28 36 34 34 34 36 36 34 34 32 29 25 20
14 15 19 22 25 25 24 25 25 26 27 24 18 23 22 18 6 9 8 14 17 19 27 33 34 36 38 39 38 33 30 25 23

GFSFLT1_925_spd_054.txt.gz
Wind_Speed
15 10 7 8 8 9 10 10 11 11 9 6 6 6 7 7 9 9 9 10 12 11 11 10 7 13 14 9 9 13 15 8 5
12 9 8 7 7 8 9 9 9 9 7 5 5 5 6 6 7 6 7 8 5 5 5 7 6 7 6 7 7 9 15 11 6
11 8 6 5 5 7 7 7 7 6 5 3 3 3 3 3 5 4 3 4 5 5 6 7 6 6 5 5 3 3 4 7 10
8 7 6 5 5 5 5 5 5 5 4 2 2 3 2 1 2 2 1 1 2 5 6 6 6 5 5 4 3 1 1 1 2
11 8 7 5 5 5 5 4 3 3 3 3 1 2 1 2 2 2 2 2 3 1 2 4 5 5 4 4 4 4 3 2 2
11 9 8 7 6 6 4 3 3 4 4 5 5 3 3 4 4 4 4 4 6 4 2 4 4 3 3 4 4 4 4 4 5
8 8 9 8 7 6 4 3 4 4 4 5 6 7 6 6 6 6 5 5 8 6 6 7 5 3 2 2 2 3 4 5 5
9 9 10 10 10 9 7 6 6 6 6 6 7 8 8 8 8 7 5 7 7 6 7 7 5 4 2 1 1 2 2 3 4
11 11 11 11 11 10 9 9 9 8 8 8 9 9 9 9 9 9 6 7 9 7 6 7 6 4 4 4 3 3 2 2 3
11 12 13 12 11 11 12 12 12 12 12 12 13 13 13 12 12 11 10 10 13 11 9 8 7 7 6 6 5 5 4 4 4
14 14 14 14 14 13 13 14 14 15 15 15 15 15 15 15 15 13 12 14 15 15 12 11 9 9 8 8 7 7 5 5 5
18 16 16 16 16 17 18 17 17 17 17 18 17 17 17 18 18 17 15 15 17 18 16 13 12 11 11 10 9 9 8 7 7
20 21 20 19 19 20 21 21 21 21 21 22 22 21 21 21 21 20 19 18 19 20 21 19 16 15 13 13 12 12 11 10 9
22 23 23 22 23 23 24 25 25 26 27 27 27 26 25 24 24 24 23 22 22 23 23 23 22 20 18 16 15 14 13 13 12
26 27 27 26 25 26 26 26 28 29 31 30 30 28 27 27 29 29 28 27 26 25 25 26 26 24 23 19 18 17 16 16 15
23 27 28 28 27 29 28 27 27 29 29 26 26 30 27 27 31 32 31 31 31 29 28 28 29 28 25 24 21 20 19 18 17
24 26 27 25 27 27 28 28 27 27 26 14 5 3 10 18 22 25 30 32 32 32 31 30 30 30 29 28 27 25 22 21 20
21 23 24 25 25 26 26 25 25 23 20 22 13 1 4 2 8 11 14 18 22 27 29 29 28 30 31 31 30 30 28 23 22
12 14 16 19 20 22 24 24 25 24 18 17 21 24 9 2 3 7 13 13 20 20 20 22 25 27 29 33 35 32 30 28 24
12 13 14 16 19 21 23 25 24 22 22 20 16 16 19 19 6 5 5 10 13 17 15 16 18 22 27 29 33 34 29 28 26

GFSFLT1_925_spd_057.txt.gz
Wind_Speed
11 6 10 10 12 12 12 12 11 10 9 8 8 9 9 10 11 11 11 11 12 11 9 11 7 11 13 12 12 17 13 6 5
9 6 8 9 10 10 10 10 9 8 8 7 7 7 7 8 9 8 8 8 6 5 7 8 7 6 2 6 9 10 13 8 6
8 6 7 8 8 8 8 8 7 6 5 5 5 5 5 6 7 6 5 5 6 7 8 9 9 9 8 7 4 2 2 6 9
7 4 5 6 6 6 6 6 5 4 3 3 4 3 2 4 5 4 4 4 4 6 7 7 7 7 6 6 5 3 1 2 1
8 7 4 4 4 5 5 4 3 3 2 2 1 2 1 2 3 3 3 3 2 1 4 8 7 6 6 6 6 6 5 3 1
9 7 6 4 4 4 3 3 2 3 3 3 3 2 2 3 3 3 4 3 4 3 5 8 8 6 5 5 5 5 4 3 4
7 7 6 6 5 4 3 3 3 3 3 4 5 5 4 4 5 4 4 4 5 6 7 8 7 6 4 3 4 4 4 4 4
7 7 7 8 8 7 6 5 5 4 4 4 5 6 6 6 7 6 5 4 4 7 6 8 6 5 4 2 1 1 1 1 1
7 7 8 8 9 8 8 8 8 7 7 7 7 7 7 8 9 8 7 5 8 8 7 8 7 6 3 2 1 2 1 0 1
7 8 9 10 10 10 10 10 10 10 10 10 11 12 11 11 11 11 10 9 9 11 10 9 7 6 5 5 4 4 3 3 3
11 10 10 12 12 11 11 11 11 11 11 12 13 13 13 12 13 13 12 12 12 15 14 11 10 8 8 7 7 6 5 4 4
15 14 13 13 13 13 14 15 15 14 14 14 14 14 15 15 16 16 16 15 15 17 17 15 13 13 10 10 9 9 8 7 6
17 18 17 15 15 16 17 17 18 19 18 18 18 18 18 19 19 20 20 19 18 18 19 19 17 16 14 12 12 11 10 10 9
17 19 19 17 18 19 19 20 20 20 20 22 22 22 22 23 23 24 24 24 23 21 20 20 21 21 18 15 14 14 14 13 12
20 22 23 22 22 23 23 23 22 23 22 22 24 24 25 26 26 27 29 29 27 26 24 22 23 24 23 20 17 16 15 16 15
20 22 23 24 25 25 24 23 23 23 23 16 16 21 20 21 21 22 25 28 29 27 26 25 24 25 25 25 22 19 18 18 19
25 25 25 25 24 24 24 24 18 19 21 8 4 4 9 15 19 18 19 20 20 22 23 23 25 25 25 26 27 25 22 20 20
21 22 23 24 24 25 25 25 23 16 17 18 9 2 4 3 11 13 13 13 15 14 13 14 14 19 23 25 27 29 27 24 21
12 13 15 17 18 19 21 21 22 20 16 15 18 21 11 3 2 4 8 11 13 15 14 14 13 13 17 19 23 27 29 28 25
9 11 13 14 14 15 17 19 19 21 21 19 12 13 15 16 7 2 6 7 7 15 14 14 15 14 15 16 18 20 23 27 25

GFSFLT1_925_spd_060.txt.gz
Wind_Speed
7 9 11 12 12 12 12 12 12 11 10 10 10 10 11 12 9 9 10 10 10 10 9 9 6 7 8 11 14 14 9 7 6
5 7 9 10 10 11 11 10 10 9 9 9 8 8 9 8 8 7 7 6 6 8 9 9 7 6 4 5 8 10 12 9 7
6 5 7 8 8 9 8 7 7 7 7 6 5 5 7 7 6 5 4 5 6 8 8 8 9 9 8 7 4 1 5 8 9
4 3 5 6 6 6 6 5 4 3 3 3 3 3 4 5 3 4 4 3 4 5 8 10 9 9 9 9 7 4 1 2 4
6 5 3 4 4 4 4 3 2 1 1 1 1 1 4 3 3 3 3 2 3 1 6 10 9 9 8 7 7 7 6 5 2
5 7 5 4 4 4 3 2 2 1 2 3 2 1 2 3 3 3 4 2 3 4 6 7 9 7 6 5 5 5 4 5 4
7 6 6 5 5 4 4 3 2 1 3 3 3 3 3 3 4 4 4 3 5 8 6 6 8 6 5 3 3 3 3 4 4
5 5 5 5 6 5 4 3 3 3 3 4 4 4 4 4 5 5 5 5 4 8 7 8 7 6 5 4 1 1 1 1 0
5 5 6 6 6 6 6 5 5 5 5 6 6 6 6 6 6 7 7 6 6 9 9 10 9 7 5 4 3 3 2 0 1
5 6 7 7 7 7 6 6 7 7 7 8 8 8 9 9 8 7 10 9 8 10 11 10 9 8 6 5 4 4 4 2 2
7 7 7 8 8 7 7 7 7 7 8 8 9 9 9 9 9 8 9 10 11 12 15 13 11 10 9 8 7 6 5 4 4
9 9 8 8 8 8 9 9 9 10 10 10 10 10 10 10 10 10 10 10 12 13 15 16 15 14 13 11 10 9 8 7 6
10 10 10 9 8 8 10 10 11 11 12 12 11 11 11 12 12 13 12 12 11 13 15 18 18 17 16 14 13 12 12 11 10
12 11 11 10 10 11 11 12 12 13 13 13 14 13 14 14 14 15 16 15 15 14 14 17 19 20 20 18 16 14 15 15 13
13 13 13 12 13 13 14 14 14 15 15 15 16 16 16 16 16 17 17 16 16 16 15 14 15 18 23 23 20 18 16 17 18
14 14 14 13 15 16 16 16 16 17 15 13 15 16 13 15 16 14 13 12 12 12 13 13 14 15 19 23 25 22 20 19 20
14 15 16 16 16 17 17 17 17 15 13 10 8 5 13 15 10 10 10 10 9 9 9 10 12 13 14 16 19 24 23 22 20
15 16 16 17 17 19 18 16 15 16 14 14 10 3 7 3 6 7 8 8 7 7 6 7 10 10 11 13 16 21 24 25 23
12 12 13 16 17 19 20 21 20 20 17 13 16 18 8 3 3 6 7 7 8 7 8 10 8 10 12 12 13 15 17 21 23
10 11 12 12 11 14 14 13 15 17 17 17 14 14 12 13 8 4 6 7 5 7 7 7 6 6 6 6 10 11 13 16 18

GFSFLT1_925_spd_063.txt.gz
Wind_Speed
10 12 12 12 12 11 11 11 11 11 11 11 12 14 14 12 10 10 11 9 11 11 10 9 9 9 8 11 13 14 11 10 9
7 11 11 11 11 11 10 10 9 10 10 9 9 11 13 10 8 8 8 8 10 11 12 12 11 11 10 8 7 9 11 12 12
5 9 9 9 9 8 8 7 7 7 7 6 6 8 9 7 6 7 5 7 8 11 13 13 12 11 10 9 7 5 5 6 9
3 6 7 7 6 6 6 5 4 4 5 5 4 5 8 7 4 5 4 4 3 7 11 14 13 12 11 10 10 7 5 5 5
5 5 6 5 4 4 4 3 2 2 1 1 2 4 7 4 4 4 4 0 2 3 6 11 12 12 10 9 8 8 8 8 5
3 6 4 4 4 4 3 2 0 0 1 1 2 2 2 3 3 2 5 2 3 3 6 7 11 10 10 8 7 7 7 7 8
6 6 6 5 5 5 4 2 1 1 2 4 4 3 3 3 3 4 7 4 3 4 9 6 9 9 8 7 6 5 5 6 6
7 4 4 4 4 4 4 3 1 4 3 3 3 4 4 4 5 6 8 6 4 5 6 6 7 8 7 6 4 4 5 4 4
6 6 5 6 6 6 6 5 5 5 5 5 5 6 6 6 6 7 10 8 6 6 7 8 7 8 7 5 4 4 4 4 3
6 6 6 7 6 6 6 6 6 6 6 7 7 8 8 8 8 7 11 10 8 8 11 9 9 8 6 4 4 4 6 4 3
6 6 6 7 7 7 7 7 7 7 7 7 8 8 8 8 8 9 9 12 10 10 11 12 10 10 9 9 7 7 6 5 5
8 7 7 7 7 8 8 8 9 9 8 9 9 9 9 10 10 11 11 10 12 12 12 14 13 13 12 11 11 11 10 8 7
8 8 8 8 8 8 8 9 9 9 10 10 10 10 10 12 12 13 13 13 12 12 14 12 15 15 15 15 14 15 14 12 12
10 9 8 9 9 10 10 10 11 11 12 12 13 12 13 14 14 15 15 15 15 14 13 16 16 16 18 17 17 17 17 16 15
11 10 10 10 12 12 13 14 14 14 15 14 15 16 15 16 16 16 16 16 15 13 15 13 14 14 14 19 20 18 17 17 18
11 11 12 13 14 14 15 15 16 17 16 14 14 17 17 16 16 14 15 13 10 10 10 11 11 11 13 14 16 21 20 19 17
12 13 14 14 15 16 17 17 17 17 14 6 10 3 11 16 15 10 9 9 10 9 7 7 8 9 9 10 13 15 18 21 20
14 16 18 18 19 20 21 19 15 15 16 15 10 3 4 5 5 6 7 9 9 7 6 4 5 7 7 8 9 13 16 19 19
10 10 10 13 15 17 19 21 18 18 16 14 18 21 13 3 3 10 10 8 7 6 5 5 5 6 7 8 9 13 13 13 16
9 10 11 12 11 11 12 12 12 15 17 18 16 14 14 16 9 5 6 9 8 5 5 3 2 3 3 1 7 7 10 12 13

GFSFLT1_925_spd_066.txt.gz
Wind_Speed
14 15 15 16 15 14 14 13 13 13 13 15 16 16 16 14 15 14 8 10 11 12 11 10 11 10 9 10 12 15 16 15 14
12 14 14 15 14 14 13 12 12 11 11 11 13 15 15 11 11 7 8 11 12 13 13 12 12 12 11 10 9 10 11 14 14
10 12 12 13 12 12 11 10 9 9 8 8 9 10 11 10 9 4 7 8 9 12 14 14 13 13 13 13 10 8 8 8 10
7 9 10 9 10 9 9 7 6 6 6 6 7 10 10 9 8 5 6 4 4 7 10 13 13 12 12 11 11 11 10 9 6
5 8 8 7 7 6 6 5 4 3 3 4 5 7 9 7 5 2 6 2 2 2 6 9 11 11 11 10 10 10 10 10 10
2 6 5 5 5 5 4 3 2 2 4 4 3 5 5 2 2 4 5 4 2 3 6 7 9 10 9 9 8 8 9 9 9
8 4 4 4 4 4 2 1 1 4 3 5 4 4 3 2 3 5 7 6 3 3 6 6 7 8 7 7 6 6 7 7 7
5 3 4 4 4 3 1 1 3 2 2 3 3 5 5 2 4 6 9 8 6 5 5 5 6 6 6 5 4 4 5 5 4
5 7 1 0 3 3 6 4 3 3 5 3 5 6 7 6 5 8 9 9 8 5 6 7 7 6 6 4 3 4 4 3 2
7 7 7 7 6 4 6 5 6 7 6 7 8 8 7 8 8 9 10 10 9 8 8 10 9 8 6 4 2 3 4 3 2
8 7 8 8 8 7 7 7 7 7 8 8 8 9 9 9 9 10 11 11 12 10 10 10 12 11 9 7 7 6 6 5 3
8 8 8 7 7 8 8 8 9 9 10 10 10 11 11 10 10 12 13 13 13 12 11 12 13 13 14 12 11 11 10 8 8
10 9 9 8 8 8 8 9 9 10 11 12 12 12 13 14 11 13 14 16 15 14 12 13 13 14 15 15 14 15 14 12 10
12 10 9 9 9 9 9 10 11 12 12 13 14 14 15 15 15 16 16 17 18 17 15 15 15 15 16 17 16 16 15 16 14
12 11 10 9 10 11 11 12 13 15 15 16 19 18 20 19 19 21 18 16 15 14 11 12 15 13 13 13 15 17 17 16 17
12 12 11 10 12 12 12 13 15 17 17 18 20 20 19 19 23 21 18 15 10 10 12 10 10 11 10 9 11 12 15 19 16
11 11 12 12 12 14 15 15 16 17 16 9 9 3 7 16 19 19 12 8 8 7 7 6 6 7 8 8 8 9 12 13 16
13 14 14 16 17 18 18 18 18 18 19 17 11 3 3 3 1 5 6 6 7 6 6 8 6 9 9 9 9 11 12 13 15
15 16 15 16 16 17 20 21 19 18 15 15 18 21 18 3 3 7 4 4 6 6 7 7 3 3 4 6 8 9 10 9 11
9 10 10 11 12 12 12 13 13 14 15 16 18 17 18 20 9 5 9 10 8 8 8 4 5 2 5 6 7 6 6 7 9

GFSFLT1_925_spd_069.txt.gz
Wind_Speed
18 18 19 17 16 15 16 16 17 18 17 16 16 17 17 11 11 11 10 14 13 13 13 13 12 11 9 8 10 14 15 14 16
17 17 17 16 15 15 14 15 15 15 14 14 14 13 12 9 9 11 11 14 13 13 13 13 12 12 11 9 8 9 9 9 11
16 16 16 15 14 13 12 12 12 11 11 11 11 11 10 8 7 8 9 9 10 11 13 13 12 11 11 11 10 9 8 7 8
13 14 14 13 12 11 10 9 9 9 8 9 10 9 9 8 6 6 7 5 5 7 9 11 11 11 10 10 9 10 10 8 7
11 11 11 10 10 9 8 7 6 7 6 6 7 8 6 5 2 3 6 3 2 2 5 8 9 10 9 8 8 9 9 10 9
8 10 8 7 7 6 6 5 5 5 6 6 4 5 4 3 2 3 5 5 2 2 3 4 6 7 7 7 6 7 7 8 8
7 6 5 6 6 5 4 3 4 5 3 2 3 1 0 0 4 4 5 7 5 3 4 4 3 5 5 5 4 4 4 5 5
7 3 4 6 6 6 5 4 4 2 1 2 1 3 4 3 4 5 7 7 7 5 6 6 4 4 4 4 3 2 3 3 4
8 6 4 5 5 6 5 3 4 3 3 3 3 5 6 6 6 7 8 9 8 7 5 6 6 5 5 5 3 1 1 1 1
9 8 8 5 4 5 5 4 4 7 6 6 7 7 7 7 8 9 9 10 10 8 7 9 8 8 7 6 6 4 3 2 1
12 10 9 8 7 7 7 7 7 7 7 8 9 9 10 10 10 10 12 12 12 11 10 9 11 12 11 9 8 9 8 6 5
10 11 11 11 11 10 9 8 8 7 8 10 11 10 12 13 13 12 14 15 14 13 11 10 10 12 14 14 14 12 12 10 7
13 13 11 11 10 9 10 10 10 9 9 10 11 11 12 13 15 15 15 16 16 17 15 12 11 13 12 15 16 15 15 14 12
15 14 12 12 11 10 10 8 9 10 11 11 12 13 15 17 15 17 17 17 18 18 16 13 13 12 13 13 15 17 16 15 17
14 14 13 12 12 11 10 10 11 12 13 15 17 19 20 20 21 23 23 20 16 15 13 10 11 11 9 11 12 12 15 15 14
15 15 13 12 13 12 11 11 11 14 15 14 15 17 17 20 17 21 22 21 12 8 5 7 8 7 7 9 8 10 12 12 13
17 16 15 15 13 13 14 14 16 16 16 14 13 3 7 11 14 15 15 12 6 4 5 6 6 7 8 9 9 11 12 13 13
14 15 15 16 16 16 15 16 18 18 19 18 9 2 3 2 2 1 4 6 7 5 5 7 6 7 9 8 10 9 11 11 11
16 17 17 17 18 19 19 19 19 18 17 18 20 18 13 2 3 4 4 3 6 8 9 9 7 8 6 5 6 7 7 8 8
18 16 16 14 14 13 13 13 12 13 14 13 14 13 14 16 7 3 7 10 9 7 7 9 9 7 5 5 6 5 4 5 6

GFSFLT1_925_spd_072.txt.gz
Wind_Speed
19 19 17 18 17 17 18 18 18 17 16 17 16 12 11 9 9 11 14 14 12 12 13 12 11 10 9 8 8 10 12 13 14
19 20 18 17 16 17 17 17 17 15 14 14 13 11 8 8 10 10 12 12 12 12 12 12 12 11 10 8 7 7 6 7 9
17 17 17 15 15 15 15 15 14 14 13 11 10 9 6 6 7 8 7 8 9 10 12 11 11 10 10 9 8 7 5 4 4
16 17 16 15 14 13 13 12 11 11 10 10 9 8 5 5 5 6 5 4 4 6 8 10 10 9 8 7 7 8 7 6 5
14 14 13 13 13 12 11 10 10 9 9 8 7 5 3 2 2 3 5 4 2 3 5 6 7 7 7 6 7 7 7 7 7
11 11 11 10 10 9 8 8 8 8 8 7 7 5 2 1 0 1 3 4 3 3 3 3 5 6 6 5 5 4 5 6 6
11 9 8 8 8 8 7 6 6 7 6 5 6 3 1 1 2 3 4 5 5 3 6 5 4 5 5 5 4 3 3 4 4
10 8 8 8 8 8 7 6 6 4 2 3 2 2 2 3 4 5 5 6 6 6 5 7 6 6 5 5 6 3 2 2 2
12 9 7 9 9 9 7 7 6 4 2 1 2 3 4 5 5 6 7 7 7 7 6 6 6 7 6 6 7 5 3 2 1
11 11 10 8 10 9 9 8 7 7 6 6 7 7 6 6 7 8 8 9 8 8 7 8 9 9 9 8 7 5 4 4 4
12 12 12 11 10 9 8 8 8 7 7 7 8 8 8 9 11 11 10 11 10 9 9 8 9 11 12 13 11 9 8 6 4
11 13 12 12 10 9 9 8 8 8 7 8 10 10 10 12 13 15 15 14 13 13 12 10 8 8 11 14 14 14 14 11 9
14 14 13 11 11 11 10 10 10 10 10 10 9 10 12 12 13 13 15 15 15 15 17 13 13 11 12 13 14 15 14 16 14
17 15 13 12 12 12 11 10 9 10 10 12 12 13 15 16 17 18 17 17 16 17 16 17 13 12 11 12 12 13 13 13 15
18 16 14 13 13 12 12 12 11 13 13 14 17 18 20 21 22 23 20 20 18 16 14 10 12 10 9 8 10 12 11 10 11
18 17 16 15 15 13 13 13 13 14 15 14 17 19 20 21 23 23 20 18 16 15 11 9 8 8 9 8 8 9 10 10 9
18 18 18 16 16 15 14 14 14 15 16 13 16 3 9 16 16 14 15 8 8 10 9 7 8 8 9 10 10 8 10 11 10
20 20 19 18 17 16 13 13 14 17 19 17 6 3 3 3 3 3 3 4 8 8 8 8 8 9 10 9 9 9 9 11 11
23 20 19 18 17 17 18 17 16 16 18 19 16 15 13 3 3 4 4 2 4 7 9 9 10 8 8 7 5 5 6 6 5
19 19 20 20 18 19 19 19 16 14 14 13 12 11 12 12 7 4 7 6 5 6 8 10 10 9 7 5 4 4 4 4 5

GFSFLT1_925_spd_075.txt.gz
Wind_Speed
16 16 16 17 18 19 20 19 16 16 15 14 13 12 10 10 11 13 13 13 11 12 12 12 11 10 8 8 7 8 9 9 10
17 16 17 17 19 19 19 18 16 14 13 12 10 9 8 9 10 10 11 11 10 11 12 11 11 11 10 9 8 7 6 6 7
17 16 15 14 16 17 16 16 14 12 11 10 10 8 7 8 8 7 6 7 8 9 11 11 11 10 9 9 9 8 6 6 6
17 15 14 13 14 14 13 12 11 10 10 8 8 5 5 5 6 6 5 4 4 6 8 9 10 10 9 8 8 8 8 7 6
17 17 15 14 13 12 11 10 9 9 8 7 5 4 2 2 3 3 4 4 3 4 5 6 7 8 8 7 7 7 7 7 7
16 15 15 13 12 11 9 8 7 7 7 6 4 2 0 0 0 1 2 3 2 4 5 5 5 6 7 7 7 6 5 5 5
12 12 11 11 11 10 8 7 7 7 6 4 5 3 2 2 2 2 2 3 3 4 6 6 5 5 5 6 6 6 4 4 4
12 11 10 10 10 10 9 8 7 7 5 4 3 4 3 3 3 4 4 4 4 5 6 7 6 5 5 6 7 5 4 3 3
12 11 9 10 10 9 8 7 7 6 3 3 3 3 4 5 5 5 6 6 6 6 6 6 7 6 6 6 6 6 5 5 4
12 11 10 8 10 9 9 7 6 7 6 6 6 6 6 7 7 7 7 7 8 8 8 8 8 8 8 9 8 6 5 5 5
13 12 12 10 9 8 8 8 8 7 8 8 9 8 9 8 9 10 11 11 10 10 9 9 8 9 10 12 12 11 10 8 6
14 13 13 12 11 10 10 9 9 9 8 8 8 11 10 10 10 13 16 15 15 14 13 13 10 10 9 10 12 13 14 13 11
16 14 14 11 12 11 11 10 9 9 9 10 9 9 11 14 14 14 15 15 15 16 16 16 16 12 11 11 11 12 10 12 17
19 16 13 13 13 12 11 10 9 9 9 9 13 13 15 16 18 21 19 19 19 17 15 15 15 14 12 13 12 10 10 9 9
22 19 15 15 14 13 13 13 12 11 11 12 15 17 18 19 20 22 23 21 17 15 16 14 12 14 12 12 12 11 10 8 6
23 20 17 16 15 14 15 15 13 13 13 12 16 18 18 21 23 22 23 21 18 17 14 15 11 11 9 9 9 9 9 7 7
25 21 19 17 17 16 15 13 11 12 13 9 8 4 11 15 14 13 12 9 8 8 8 9 8 8 6 9 8 9 9 6 7
28 23 18 18 18 18 14 14 12 13 14 14 7 2 3 3 10 7 6 5 5 6 8 9 9 8 7 8 7 8 7 5 6
26 22 20 17 16 14 16 15 17 18 18 16 14 16 12 3 4 4 2 2 4 6 8 10 10 9 8 8 7 5 3 5 5
21 21 16 12 16 20 22 19 20 20 18 15 11 9 12 14 8 5 6 6 6 8 10 12 12 11 9 7 6 5 4 3 4

GFSFLT1_925_spd_078.txt.gz
Wind_Speed
14 15 17 17 17 18 17 15 14 15 14 13 12 11 12 13 14 14 14 14 12 13 13 12 11 10 10 10 9 9 10 9 8
14 15 16 16 17 17 16 14 14 13 12 11 10 10 11 11 11 12 12 12 11 12 12 12 12 11 11 10 9 8 7 7 7
16 16 15 16 16 17 15 13 11 10 9 8 8 8 8 9 10 9 9 9 8 9 10 11 11 10 10 10 10 9 8 8 7
16 16 16 16 17 15 14 12 10 9 8 8 7 6 6 6 7 7 6 6 5 7 8 9 10 10 10 9 9 9 9 9 9
16 15 14 15 15 14 12 11 9 7 7 6 5 4 3 3 4 4 5 5 4 5 6 7 8 9 10 9 9 9 8 8 8
16 15 13 13 11 10 9 8 8 7 6 5 3 2 1 1 2 3 3 4 2 4 6 6 6 7 8 9 9 8 7 7 7
14 13 12 10 9 8 8 7 6 5 5 3 3 1 1 2 2 2 2 3 3 4 5 5 5 6 6 7 8 8 6 5 4
13 13 12 11 10 9 8 7 6 6 4 3 2 3 3 3 3 3 3 3 3 4 5 6 5 5 5 5 6 7 7 6 4
14 12 11 11 10 10 8 7 6 5 3 2 2 2 3 4 4 4 5 5 5 5 5 6 7 6 5 5 6 6 5 5 5
13 11 10 10 11 10 10 8 7 6 5 4 4 4 4 5 6 6 6 6 7 7 7 7 7 6 8 7 7 7 6 6 5
14 12 12 10 10 9 10 9 7 6 6 5 6 5 5 6 6 6 8 9 10 10 11 9 9 9 9 10 9 11 10 10 8
14 13 13 12 10 10 10 9 8 8 8 7 6 7 7 6 7 9 12 12 12 13 13 13 13 12 9 10 9 9 11 13 13
16 14 14 13 13 13 12 11 10 8 8 8 7 7 7 9 10 12 13 16 15 14 13 15 15 14 13 12 10 10 8 10 11
20 18 15 14 14 14 12 11 10 8 8 8 8 10 10 14 15 16 17 18 18 17 17 15 14 14 14 13 11 9 9 8 8
22 21 18 16 16 15 14 12 11 11 9 10 11 14 15 16 16 17 19 20 20 18 15 15 15 12 13 12 11 9 7 6 5
26 24 21 18 18 16 14 13 13 12 10 11 13 14 16 18 19 18 18 15 15 14 14 14 13 11 11 11 10 8 6 4 5
27 27 24 21 18 16 15 14 11 10 8 5 5 3 7 8 4 6 12 7 4 4 7 7 7 9 10 9 8 9 7 6 5
22 26 25 22 17 17 13 11 11 9 9 10 5 2 3 3 9 6 8 6 6 6 7 8 9 10 10 8 8 8 7 4 1
18 23 22 23 16 13 11 10 12 14 13 13 12 14 9 2 4 2 3 3 3 3 6 8 9 10 10 8 8 6 4 1 1
13 15 18 16 8 5 7 10 13 12 13 13 12 7 9 11 6 4 4 3 8 6 7 10 10 11 11 9 8 7 5 4 1

GFSFLT1_925_spd_081.txt.gz
Wind_Speed
19 19 20 21 18 17 16 16 17 15 14 13 11 12 14 15 15 14 14 13 12 13 13 12 11 10 10 9 9 8 8 8 7
17 18 19 20 19 17 15 15 16 13 12 11 11 12 12 12 12 12 11 11 11 12 12 11 11 11 11 10 9 8 8 8 8
16 17 17 18 17 17 15 14 13 12 10 9 9 9 9 10 10 10 9 9 9 10 10 11 10 10 10 10 10 9 9 8 8
16 16 16 16 16 15 13 12 10 9 9 8 7 7 6 7 7 7 7 8 7 8 9 9 9 9 9 9 9 9 9 9 8
14 15 15 15 15 14 12 10 9 8 7 6 6 5 4 4 4 5 5 5 4 5 6 6 7 7 8 8 8 8 7 7 7
14 14 13 14 14 13 11 10 8 7 6 5 4 3 3 2 2 3 3 3 2 3 5 5 5 6 7 8 8 7 6 6 5
15 15 13 12 12 11 10 10 9 7 6 4 3 2 1 1 0 1 1 2 2 2 4 4 4 4 5 5 7 8 7 6 5
15 14 13 12 11 11 10 9 8 8 6 5 4 3 1 0 1 1 1 1 1 2 3 4 4 4 4 4 5 6 5 5 6
15 14 13 12 11 10 9 8 7 7 6 4 4 3 2 1 1 1 1 2 3 3 4 5 6 6 3 4 5 5 5 4 5
14 14 12 12 11 11 10 9 8 8 6 5 4 3 3 3 3 3 3 3 4 5 6 6 6 7 6 7 7 6 6 6 6
15 14 13 12 12 12 11 10 8 7 7 6 5 5 4 5 5 4 5 6 8 9 10 11 9 10 10 9 8 10 9 9 8
16 16 15 13 11 12 11 11 10 8 8 7 6 5 6 5 5 6 9 10 9 10 12 13 12 11 12 11 8 8 7 9 11
18 17 16 14 14 13 12 12 11 9 8 7 6 6 6 6 9 10 11 12 14 14 13 14 13 14 13 13 10 7 6 8 7
22 19 16 14 15 15 14 13 12 11 9 8 7 8 9 10 12 13 14 15 16 16 15 13 13 14 14 15 11 8 7 8 6
24 22 18 16 15 15 15 14 13 11 9 8 8 9 12 12 14 14 15 16 17 17 16 15 13 13 13 13 12 9 8 6 5
28 26 23 20 18 18 17 15 14 14 12 8 7 9 12 15 13 13 11 8 13 11 10 12 13 11 11 12 10 8 6 6 5
31 32 29 24 22 20 19 18 15 12 8 4 1 2 5 3 5 12 11 13 5 5 5 6 7 9 9 10 9 8 6 5 5
26 30 28 27 26 23 22 21 17 13 9 7 4 1 2 3 5 6 10 7 8 9 7 7 6 7 10 9 8 7 7 5 3
23 23 18 16 19 19 17 17 15 11 9 6 9 10 8 3 4 0 1 5 6 5 7 8 8 9 10 9 8 6 7 4 2
22 21 11 6 8 6 3 1 2 5 7 6 5 6 6 6 6 5 3 4 6 10 8 9 11 9 9 8 7 5 4 3 3

GFSFLT1_925_spd_084.txt.gz
Wind_Speed
20 22 22 20 19 17 15 17 16 15 13 11 12 13 14 13 10 11 12 11 10 10 10 10 10 9 9 9 8 7 7 7 6
19 22 22 19 18 16 16 17 15 14 12 11 11 12 12 9 9 9 9 9 9 9 9 9 9 9 10 10 9 9 9 8 7
17 18 21 18 16 15 15 15 14 12 10 10 10 10 10 8 8 7 7 8 7 8 8 8 8 8 9 9 9 9 8 8 8
16 16 17 17 15 15 14 13 12 11 9 8 8 7 9 6 5 5 5 6 5 6 6 7 7 7 7 8 8 8 7 7 8
16 15 15 16 16 15 13 12 11 10 9 7 7 6 5 3 4 3 3 5 3 3 4 4 5 6 7 7 7 6 6 6 6
16 14 15 16 15 14 12 11 10 9 8 7 6 5 3 3 3 3 2 3 2 1 2 3 3 4 5 6 6 5 5 5 5
14 14 15 14 14 13 11 10 10 8 6 5 5 3 3 3 3 3 2 1 2 1 2 3 2 3 3 3 5 5 5 6 5
13 12 12 11 12 10 9 8 7 7 6 6 6 5 4 4 3 4 3 3 2 2 3 3 3 3 2 2 3 3 3 4 4
15 14 13 12 11 10 10 9 8 7 7 6 6 6 5 4 4 4 3 3 3 4 4 5 5 5 4 4 4 4 4 3 4
15 14 13 12 11 11 10 9 9 8 8 7 7 6 6 5 5 4 5 4 4 5 6 8 8 8 7 7 7 5 5 5 6
13 12 12 12 11 11 11 10 10 9 9 8 8 8 7 7 6 6 6 7 8 9 10 11 11 10 10 12 11 9 8 9 10
12 12 12 11 11 11 10 11 10 9 8 8 8 7 7 8 7 7 7 8 9 8 10 13 13 13 11 13 10 10 7 8 10
13 12 12 11 11 11 12 11 10 10 9 9 8 8 7 7 8 8 9 9 10 12 13 13 14 15 14 13 11 9 7 7 5
15 13 13 13 12 12 12 12 12 11 10 9 9 8 7 9 9 10 10 11 12 12 14 16 15 13 14 14 14 8 8 7 6
17 15 15 14 14 14 14 14 13 12 11 9 8 9 9 9 10 10 10 10 11 10 11 10 10 13 13 13 11 10 9 7 6
17 17 17 16 16 16 17 16 14 13 11 8 10 10 9 11 11 7 5 4 8 6 5 6 6 7 10 11 11 9 7 5 6
18 18 17 17 17 17 17 17 14 14 14 9 5 4 5 3 6 7 6 6 6 4 4 5 5 4 3 5 8 7 5 4 5
18 20 23 23 21 15 16 18 19 17 16 17 7 3 4 3 6 4 6 5 5 6 5 3 4 4 4 4 7 7 5 4 4
16 20 20 20 22 26 22 19 14 16 15 15 12 7 6 4 4 2 3 3 6 6 6 5 5 6 5 7 8 7 6 5 4
14 15 11 12 20 22 15 10 7 8 9 10 8 6 4 5 8 6 6 4 7 7 8 7 4 5 6 4 6 6 6 6 6

GFSFLT1_925_spd_087.txt.gz
Wind_Speed
20 22 20 19 18 15 14 14 14 12 11 11 13 16 14 12 10 11 11 10 10 11 11 10 10 10 10 10 10 9 8 9 9
21 23 20 19 17 15 16 15 14 12 11 13 14 14 13 9 8 9 9 9 10 9 9 9 10 10 10 10 9 9 9 10 10
22 22 21 19 17 16 17 15 14 12 11 12 11 11 12 7 7 8 7 9 8 8 9 9 8 9 8 9 9 10 9 9 10
20 23 21 18 16 16 15 14 13 11 10 9 10 10 10 6 5 6 6 7 6 6 7 7 7 7 7 8 7 8 8 8 8
17 20 19 18 16 16 15 13 11 11 9 7 7 7 8 4 5 4 3 6 5 4 4 4 4 5 6 7 7 6 6 6 7
16 15 18 17 16 15 14 12 11 9 8 7 6 5 2 3 3 3 2 4 4 2 2 2 2 3 4 5 6 6 6 5 5
16 15 17 16 15 14 12 11 10 8 6 5 5 3 3 3 3 4 4 3 4 3 1 1 1 2 2 2 3 4 5 5 5
15 14 14 14 14 11 11 11 9 8 7 7 6 5 4 4 4 5 5 4 3 3 3 2 3 3 3 2 3 4 4 4 5
15 15 15 14 14 12 11 10 9 9 9 8 7 6 5 5 4 6 4 4 4 4 5 5 5 6 4 4 4 4 4 4 5
17 15 16 14 13 12 11 10 10 9 9 8 8 7 6 6 5 4 5 5 5 5 6 8 9 9 10 8 8 6 5 5 4
15 14 14 13 12 11 11 11 10 10 9 9 9 8 7 7 6 6 7 6 7 7 10 11 11 11 10 12 12 10 9 8 8
14 13 13 12 12 11 11 10 10 10 10 10 10 9 8 8 7 7 6 6 8 9 9 11 12 13 12 13 13 10 9 9 9
14 14 13 12 11 11 12 12 11 11 11 11 10 9 9 9 8 7 8 9 8 10 12 11 13 14 15 15 12 11 9 8 7
14 13 13 12 13 12 13 12 13 12 12 12 10 9 10 9 9 8 8 8 8 9 11 14 14 15 14 14 14 10 9 7 5
16 13 12 13 14 14 14 13 13 13 13 12 11 11 11 11 9 9 7 7 7 6 8 9 10 9 11 12 11 10 8 7 5
15 13 14 15 14 15 15 15 15 15 14 12 12 9 13 12 10 8 6 4 4 4 3 3 4 7 9 7 7 8 8 6 4
14 15 15 15 16 14 16 18 16 17 18 12 10 4 10 8 9 8 5 4 4 3 3 3 3 3 4 7 5 6 7 5 4
14 16 18 18 14 15 15 18 20 18 18 20 8 3 3 8 10 7 4 4 5 4 4 3 2 2 4 4 4 7 7 5 5
8 12 16 16 16 18 24 29 19 17 17 16 19 10 4 1 2 7 5 4 6 6 5 4 4 3 3 5 6 6 5 4 4
10 10 14 18 13 14 12 20 24 16 11 9 5 4 5 5 3 5 5 7 6 6 6 6 4 4 3 2 6 6 5 3 4

GFSFLT1_925_spd_090.txt.gz
Wind_Speed
21 23 20 19 17 17 15 15 13 12 11 13 18 16 15 14 10 10 8 12 12 12 12 12 12 12 12 11 11 11 11 11 11
21 23 21 20 18 16 15 15 13 12 13 15 16 15 13 13 11 7 8 11 11 11 11 11 11 11 11 11 11 11 11 12 12
24 21 21 19 17 16 16 16 13 13 13 14 13 13 12 10 9 4 7 10 9 9 9 10 10 10 10 10 10 10 10 10 11
22 21 21 18 18 17 16 14 12 12 12 12 11 11 10 10 6 3 6 8 8 8 8 8 8 8 9 8 8 8 9 9 10
21 21 20 19 17 17 16 13 12 11 10 10 10 11 9 7 7 4 1 6 6 6 6 6 6 6 7 8 8 8 8 8 8
22 21 19 19 17 17 15 13 11 10 9 8 8 9 6 5 4 4 1 4 4 4 4 3 4 4 5 5 7 7 7 7 7
21 21 20 18 16 16 14 12 11 9 6 6 6 6 5 5 5 5 2 3 4 2 1 1 2 3 3 3 4 5 6 6 6
22 21 20 18 17 16 14 13 11 9 9 6 3 2 4 5 5 5 4 4 4 4 2 1 1 2 3 2 3 4 4 4 4
20 22 22 20 19 15 13 11 10 8 5 8 6 8 6 6 7 7 4 5 5 5 4 3 4 4 5 5 5 4 4 4 4
20 15 19 18 16 15 12 12 9 11 10 10 9 7 7 6 8 5 5 4 5 4 5 5 6 7 7 10 9 7 5 5 5
20 19 19 18 17 14 14 14 11 11 11 11 9 9 8 8 7 7 8 6 5 6 6 7 8 8 9 11 11 9 10 8 7
20 19 20 18 15 16 14 13 13 12 11 11 12 11 10 11 10 9 10 7 6 7 6 7 8 9 10 11 11 10 9 9 7
21 18 20 18 16 15 14 14 12 12 12 11 12 12 11 11 11 10 10 10 9 4 4 8 7 10 12 11 11 10 10 7 6
21 19 17 16 17 16 15 14 14 14 13 14 14 15 13 12 11 9 9 10 8 4 7 7 7 10 8 10 10 8 7 8 6
19 18 16 15 16 15 14 14 15 15 15 14 14 12 12 12 12 11 11 7 4 4 5 8 6 6 6 6 9 9 7 9 7
20 17 14 14 15 16 15 16 15 16 15 12 15 14 15 15 15 12 10 3 5 6 4 2 3 3 4 6 5 4 6 8 7
17 17 16 14 15 16 16 18 17 16 17 12 6 2 9 19 17 9 7 7 2 3 5 5 4 4 4 7 6 6 7 7 6
16 17 16 17 13 18 18 17 11 10 15 23 8 2 4 5 12 13 10 6 5 5 5 4 5 4 7 8 5 6 8 6 5
14 15 14 17 20 19 20 15 13 12 9 16 25 13 2 2 2 13 11 8 7 4 5 3 6 7 6 6 5 4 6 6 4
14 15 15 20 17 18 17 17 15 15 16 13 14 11 4 8 6 2 2 6 9 10 10 8 3 5 6 4 4 4 5 4 3

GFSFLT1_925_spd_093.txt.gz
Wind_Speed
21 25 20 21 19 18 19 17 15 14 16 20 18 17 13 10 9 9 12 13 12 12 13 13 13 12 12 12 12 12 12 12 12
20 26 22 19 17 16 16 15 14 14 17 19 16 15 12 12 8 9 11 12 11 11 12 12 12 12 12 12 12 11 12 12 12
22 24 21 19 18 18 17 14 13 14 18 18 15 15 13 12 6 7 9 10 10 10 10 10 10 10 10 10 10 10 11 11 12
24 22 21 19 18 17 18 15 14 15 16 15 15 13 12 9 5 7 8 9 8 8 8 8 9 9 9 9 9 9 10 10 10
22 22 21 20 19 18 17 15 14 14 14 14 14 11 11 7 6 6 5 6 7 6 6 6 7 7 7 8 8 9 9 8 8
23 23 21 21 21 20 19 16 13 12 11 11 12 12 9 8 5 3 2 4 5 5 4 4 4 5 5 5 7 7 8 7 8
23 24 22 21 20 20 18 16 13 11 10 9 10 9 8 7 7 4 2 4 5 3 3 3 2 3 3 3 4 5 5 5 7
26 25 24 22 20 20 18 16 14 12 10 7 6 7 6 9 7 5 3 4 5 4 3 1 0 1 2 2 2 3 3 3 4
29 27 27 25 22 20 18 15 13 12 10 7 6 6 6 8 10 5 5 4 5 5 4 4 3 3 3 4 4 3 2 1 1
29 28 27 25 23 21 17 14 13 12 9 8 9 8 10 8 10 9 7 4 5 5 6 6 6 7 7 8 8 7 6 4 3
29 27 29 27 24 21 17 15 12 12 11 12 12 10 10 11 12 12 6 7 5 6 6 6 7 8 9 10 11 11 9 9 6
27 25 26 26 23 21 17 16 14 14 14 14 13 12 13 12 11 10 9 9 8 7 6 6 7 7 9 11 10 11 10 10 9
26 24 25 24 21 22 20 18 17 16 15 14 15 14 15 14 15 12 13 12 10 9 8 7 8 9 10 12 11 10 10 9 9
31 25 27 24 24 23 20 19 18 16 15 14 14 16 15 14 13 12 13 12 12 9 8 6 8 9 9 8 10 10 9 9 9
31 27 25 25 23 22 21 19 18 18 17 16 14 15 14 17 15 14 12 15 11 9 8 6 9 7 8 7 8 10 8 11 11
30 29 26 25 26 25 21 19 19 18 15 15 15 15 15 15 15 15 12 14 11 8 7 7 6 7 5 6 5 5 6 8 10
32 28 27 26 23 26 23 21 19 17 18 11 4 2 8 20 21 19 17 15 10 7 7 7 7 7 5 5 6 6 6 8 8
32 31 29 25 24 21 23 22 22 20 17 20 6 2 4 3 14 16 21 17 12 7 9 9 6 7 7 5 4 4 8 7 7
25 26 29 26 23 20 24 22 21 17 15 12 15 6 4 2 2 11 15 15 12 11 11 9 7 7 7 7 5 5 8 9 7
30 23 25 21 22 21 25 23 24 21 21 22 14 14 13 10 1 3 5 11 9 7 10 10 7 6 6 7 6 5 6 8 7

GFSFLT1_925_spd_096.txt.gz
Wind_Speed
18 22 21 22 19 18 19 18 19 20 17 16 16 15 14 11 10 12 13 13 12 12 13 13 12 12 12 13 13 13 12 13 12
20 21 22 20 19 18 18 17 17 18 19 16 14 12 12 10 9 11 12 12 11 11 12 12 12 12 11 12 12 12 11 12 11
21 22 21 19 15 18 17 17 17 18 19 16 13 11 12 9 8 9 11 11 10 10 10 10 10 10 10 10 10 10 10 11 11
22 22 20 17 16 17 16 16 16 19 19 15 13 11 12 9 8 8 8 10 9 9 9 9 8 8 9 9 9 9 9 10 10
26 23 20 19 18 18 17 16 16 18 18 16 13 10 10 8 6 6 6 7 7 7 7 7 6 7 7 7 7 8 8 8 7
25 24 22 18 19 21 18 16 16 16 16 15 13 12 9 9 7 4 5 6 6 5 5 5 5 5 5 5 6 6 6 6 6
25 23 22 21 18 18 17 17 16 15 14 15 15 12 9 8 8 5 4 5 6 5 4 4 4 3 3 3 3 3 4 3 3
27 25 25 24 24 22 20 18 17 16 14 13 14 12 10 10 11 7 5 6 7 6 5 4 3 2 1 1 0 2 2 2 2
30 28 29 27 26 24 22 19 17 16 14 13 12 12 10 10 11 8 7 6 7 8 7 6 4 3 3 3 3 3 3 2 2
31 30 29 30 26 25 24 21 19 17 16 13 13 12 11 11 11 12 9 7 7 8 8 7 7 6 5 6 7 7 7 6 4
25 29 28 29 26 25 24 22 20 19 17 15 15 14 13 13 13 13 12 9 8 8 9 8 8 9 9 9 9 10 11 9 9
22 30 30 29 30 26 24 22 19 19 18 17 16 15 14 14 14 13 15 10 11 10 9 8 9 9 9 10 11 13 11 10 11
30 33 33 34 33 29 28 24 23 20 21 19 18 18 16 16 16 14 15 15 14 14 12 11 11 10 10 10 11 11 12 11 10
34 34 33 34 34 32 33 27 26 23 22 19 18 18 18 18 17 16 17 19 19 16 15 13 11 11 11 11 9 9 11 10 10
39 34 31 29 31 33 31 28 26 24 21 19 17 18 18 17 18 18 18 14 18 17 15 13 11 10 10 10 9 9 10 10 11
38 37 34 33 35 35 32 29 26 24 22 16 18 18 17 18 20 20 17 20 18 19 15 12 10 9 8 8 7 5 5 8 10
36 34 35 36 37 34 32 30 26 26 22 11 5 2 8 19 20 20 19 21 17 19 14 11 9 8 8 8 7 6 6 7 9
35 36 37 37 35 35 34 34 30 26 26 23 7 2 4 3 11 21 20 21 22 20 16 12 9 8 7 7 7 5 4 7 8
34 34 38 38 37 36 38 37 35 30 24 23 19 7 6 3 0 2 12 19 21 21 17 14 11 9 7 6 5 6 8 9 9
32 33 34 37 33 32 33 37 36 36 27 25 15 15 8 4 3 2 3 4 6 13 17 16 13 10 9 7 6 5 7 10 10

GFSFLT1_925_spd_099.txt.gz
Wind_Speed
18 19 17 21 22 20 17 18 18 18 16 13 13 13 11 10 11 11 12 12 11 11 12 12 11 12 12 12 12 12 12 12 11
18 19 21 21 19 17 16 19 20 17 16 13 12 11 10 8 9 11 11 11 10 10 10 11 11 11 11 11 11 11 11 10 9
19 20 21 18 17 16 17 20 19 18 15 12 11 12 9 8 8 9 10 11 9 9 9 9 10 9 9 9 10 10 9 8 8
20 20 21 17 14 14 17 18 18 19 16 12 11 12 9 7 8 8 9 9 9 7 8 7 8 8 8 8 8 8 7 7 7
20 22 20 18 14 14 15 16 17 20 17 13 10 12 10 7 6 6 7 7 7 6 6 5 5 5 6 6 6 6 6 6 6
22 25 23 20 17 18 16 16 17 20 18 15 11 10 10 8 7 5 6 7 6 5 5 4 3 3 4 4 4 4 5 5 5
28 26 25 20 20 21 19 17 17 18 18 17 15 12 10 10 9 7 6 7 6 5 4 3 2 2 2 1 3 3 3 3 3
28 27 23 20 21 22 21 19 18 18 17 17 16 14 12 10 10 9 8 7 8 6 5 4 3 2 1 1 1 2 2 2 2
26 26 25 25 23 25 22 21 19 18 17 17 17 16 14 12 11 11 10 9 9 9 7 6 5 5 4 4 4 4 4 4 3
26 25 28 28 27 24 24 22 21 20 19 18 17 17 16 14 14 14 12 10 10 10 9 8 8 7 7 7 7 8 8 7 7
33 25 27 30 29 26 24 23 22 21 20 19 18 17 17 16 15 16 15 13 11 11 10 10 9 10 10 10 10 11 11 11 10
32 29 24 27 26 25 24 24 23 21 21 22 20 18 18 17 17 16 16 16 15 13 12 11 10 11 11 11 12 13 14 12 12
29 24 23 24 23 27 26 28 26 25 24 23 22 20 20 19 18 18 17 19 17 16 15 14 12 12 12 11 10 12 13 12 12
26 30 29 25 26 30 32 32 29 28 26 24 23 21 21 20 19 19 19 20 21 20 19 17 14 14 14 13 12 11 11 12 12
35 34 31 28 32 34 37 34 31 30 28 24 22 21 22 21 21 22 21 22 21 24 23 19 19 15 14 14 12 10 9 11 11
31 28 32 35 39 40 38 35 32 32 28 22 21 21 21 22 23 23 23 23 23 21 22 19 19 15 12 11 10 9 6 7 9
28 33 34 36 40 35 34 35 28 30 29 14 2 2 11 24 24 21 24 25 23 23 22 21 19 15 12 11 11 10 7 7 9
29 33 35 38 40 36 38 36 34 24 30 29 9 2 4 2 10 23 22 22 21 22 23 21 19 15 13 10 10 9 8 7 9
30 32 37 37 38 38 40 40 38 31 23 29 28 14 5 3 2 5 14 21 21 24 24 21 20 16 12 9 10 9 9 8 9
29 29 33 37 37 39 38 37 38 37 27 26 24 16 12 6 2 3 3 12 18 25 26 27 23 16 12 11 11 9 10 13 13

GFSFLT1_925_spd_102.txt.gz
Wind_Speed
16 17 15 18 18 21 18 17 17 16 12 11 12 11 10 10 10 11 11 12 11 11 11 10 10 10 10 11 11 11 10 10 10
16 18 17 21 21 20 14 17 18 16 14 13 13 11 10 9 10 11 11 11 10 10 10 10 9 9 9 9 10 10 9 9 10
17 17 19 21 19 17 15 17 17 16 13 12 11 10 8 9 9 10 10 10 9 9 8 8 8 8 8 8 8 8 8 8 10
17 18 21 20 18 16 16 20 17 16 13 11 12 10 8 7 8 8 9 9 8 7 7 7 6 6 7 7 7 7 7 8 8
18 18 19 18 16 16 17 21 19 17 14 12 11 11 9 7 7 7 8 8 7 6 5 5 5 5 5 5 6 6 6 7 6
18 20 21 19 15 13 17 20 19 20 16 13 11 12 10 9 8 6 7 7 6 5 5 4 3 4 4 4 4 5 5 5 5
22 23 22 19 16 15 15 16 18 21 19 16 13 12 12 10 9 7 8 8 8 6 5 4 3 3 3 2 3 3 3 3 4
24 25 24 22 18 18 18 17 18 21 21 19 16 13 13 11 11 10 9 8 9 8 7 6 5 3 3 2 1 0 1 1 1
26 27 27 25 22 22 22 21 20 20 20 20 19 17 15 13 12 12 11 10 11 11 10 8 7 6 5 4 4 4 4 3 2
25 27 27 25 22 25 24 23 21 21 20 19 19 19 18 15 14 14 14 13 12 12 12 11 10 8 7 7 6 7 7 7 6
23 30 30 27 25 25 25 23 21 21 20 20 19 19 18 17 16 15 16 15 14 13 13 13 13 12 11 9 10 10 11 10 9
25 29 30 29 30 28 25 23 21 21 21 21 21 20 19 19 19 18 17 18 17 15 15 14 14 13 13 11 12 13 12 12 11
24 30 32 30 29 29 24 25 25 25 23 25 24 23 21 20 21 19 19 18 20 18 17 16 15 14 13 12 12 12 12 13 11
27 32 34 30 31 30 25 27 26 25 26 27 26 24 24 22 22 22 22 22 21 21 20 19 18 17 16 15 13 12 13 11 12
23 31 32 27 28 28 29 27 28 27 26 29 27 25 26 23 25 25 23 23 23 22 23 22 21 20 18 17 15 15 14 11 10
23 26 28 27 30 27 29 30 30 28 30 24 23 28 28 25 27 27 26 27 26 24 24 24 24 22 21 18 16 13 12 10 9
23 25 26 30 30 33 30 33 26 29 31 17 8 3 11 25 31 29 30 28 25 26 25 23 24 24 22 18 15 14 12 10 7
24 29 28 28 32 35 42 38 34 26 28 33 15 3 4 3 16 33 33 30 28 27 26 25 25 25 22 18 16 14 13 11 9
30 30 32 32 33 34 32 39 38 31 22 23 34 21 5 4 2 9 24 31 27 27 26 25 25 26 23 21 18 14 12 11 12
26 30 33 34 34 34 35 33 36 34 27 25 22 29 19 13 4 3 5 16 25 27 26 25 27 27 26 24 18 15 15 12 14

GFSFLT1_925_spd_105.txt.gz
Wind_Speed
15 16 16 15 16 20 19 17 17 16 14 13 11 11 10 10 10 10 9 9 9 9 9 9 9 10 10 10 10 10 11 10 11
16 16 15 16 18 18 15 17 18 16 12 12 12 10 10 10 10 10 10 8 9 9 9 9 9 9 10 10 10 10 10 10 10
15 17 17 19 21 18 13 16 17 17 15 14 12 11 9 10 10 10 9 9 8 7 7 8 8 8 9 9 9 9 9 9 9
14 16 17 20 21 18 14 16 16 16 15 14 13 10 8 9 9 10 9 10 8 7 6 6 7 7 7 7 8 8 8 8 8
15 17 18 20 20 17 15 18 17 16 15 14 14 12 8 8 8 9 8 9 8 7 6 5 5 5 6 5 6 6 7 7 6
16 18 19 20 18 16 15 19 18 17 14 12 14 13 11 9 8 8 9 8 7 6 5 5 4 4 4 4 4 5 5 5 5
18 19 20 20 18 16 16 19 19 18 15 14 14 15 13 11 10 9 9 9 9 7 6 5 4 4 4 3 3 3 3 3 3
19 19 21 20 19 17 15 18 19 21 21 19 16 15 15 14 13 11 10 10 10 9 8 7 6 5 5 4 3 2 1 1 1
22 21 21 21 22 22 19 19 20 20 22 20 18 17 15 15 13 13 12 11 11 11 11 10 9 7 6 6 6 5 4 3 3
23 26 27 26 25 23 22 22 21 20 21 21 20 19 18 17 15 14 14 14 14 13 13 12 11 10 9 8 8 8 7 7 6
18 21 25 28 26 25 24 24 23 21 20 20 20 19 19 20 18 17 16 16 16 15 15 15 14 12 11 11 11 10 11 10 9
15 19 23 27 28 27 24 25 25 23 20 21 21 20 20 20 20 19 18 17 19 18 17 16 15 15 14 13 12 12 12 12 11
17 20 24 29 29 27 27 25 25 25 21 21 23 21 20 21 21 22 22 21 21 22 21 19 18 16 15 14 13 11 12 13 13
20 21 23 25 28 29 28 28 27 22 23 21 24 22 22 23 24 24 24 23 22 22 23 22 21 19 18 17 15 14 14 13 12
19 22 24 24 24 25 25 25 29 21 21 24 26 24 23 24 26 28 26 27 26 25 25 25 24 23 22 21 19 17 15 13 12
19 20 23 24 25 25 23 21 22 30 29 21 23 30 30 27 29 30 29 29 29 27 27 26 27 26 24 24 22 19 16 14 12
21 21 25 23 21 22 22 19 19 18 24 14 9 5 13 20 32 36 33 32 31 31 31 28 29 27 28 26 25 21 17 15 12
20 21 22 22 22 24 26 27 24 19 19 27 13 2 7 10 20 30 36 36 35 34 32 31 29 29 28 27 25 22 19 16 13
16 21 24 23 24 27 27 29 31 27 22 20 31 33 12 5 5 12 21 29 31 37 36 33 31 30 30 29 27 23 20 18 16
17 18 22 24 26 30 31 30 33 35 32 29 22 29 34 24 7 7 4 13 28 35 36 33 33 32 31 29 28 23 21 20 19

GFSFLT1_925_spd_108.txt.gz
Wind_Speed
13 12 14 16 13 17 18 14 15 15 15 15 12 11 10 9 6 6 7 6 6 7 7 8 8 8 8 9 9 9 9 9 9
15 13 15 15 14 20 17 14 14 14 13 12 11 11 10 7 6 6 6 6 8 7 7 7 7 7 7 8 8 8 8 8 8
14 15 16 15 16 20 16 15 15 14 11 12 11 10 11 9 7 6 6 7 7 6 6 7 7 6 6 7 7 6 7 7 7
14 16 16 16 19 19 15 14 15 14 12 12 11 10 9 8 8 7 6 8 7 6 5 5 6 6 5 5 5 5 5 6 6
14 15 17 18 21 20 15 14 17 16 14 13 11 9 8 7 8 8 8 9 7 7 6 5 5 5 4 4 4 4 4 4 5
14 15 17 18 21 20 17 15 18 17 15 13 13 12 7 7 7 7 11 11 9 7 6 5 5 4 4 3 3 3 3 3 3
15 16 19 20 21 19 17 16 18 18 13 12 15 13 10 9 8 7 11 11 10 9 8 7 6 6 5 4 3 3 2 2 1
15 15 16 19 21 17 16 15 16 16 15 14 14 14 12 11 10 9 11 11 10 11 10 10 9 8 7 6 6 4 4 3 2
15 17 16 18 19 19 17 15 16 18 18 16 15 14 13 12 11 11 13 13 12 12 12 12 11 10 9 9 8 7 6 5 5
15 18 16 18 18 19 18 16 16 18 18 18 18 17 15 13 12 11 14 15 15 14 14 14 13 13 12 11 10 10 9 9 9
15 15 16 17 18 21 20 18 18 18 18 19 19 18 16 15 15 13 12 16 18 18 17 17 16 16 15 14 13 13 12 12 12
12 13 15 16 19 22 25 21 17 19 17 17 17 18 18 16 16 16 14 14 17 20 20 19 18 18 17 16 16 16 15 14 14
12 12 12 13 15 17 19 19 20 21 19 17 17 16 17 15 17 17 16 15 15 16 23 22 22 20 19 18 18 18 16 15 14
15 14 14 13 16 18 21 20 20 20 22 26 20 18 17 17 19 19 18 17 18 17 19 24 25 24 23 21 19 18 16 17 17
16 16 16 16 17 18 21 21 21 20 20 25 17 19 18 20 20 20 19 20 20 19 20 19 24 27 27 25 23 21 19 20 18
23 18 16 16 22 20 22 22 20 19 19 15 20 24 27 27 23 21 20 20 19 22 23 22 21 21 27 28 27 25 22 21 19
18 16 16 16 19 19 21 19 18 19 18 13 17 9 20 25 30 30 29 26 29 27 27 25 24 23 22 29 30 30 27 23 19
14 15 17 14 17 20 22 22 21 19 18 21 16 4 8 15 21 27 28 29 29 30 32 32 28 28 26 26 30 31 29 27 21
12 14 16 17 17 18 19 21 21 21 19 15 27 27 10 2 8 23 21 23 27 29 29 31 29 29 31 33 34 32 31 28 24
11 12 15 16 17 17 19 21 23 25 26 25 16 23 23 25 11 7 7 9 19 25 26 27 27 31 34 35 34 33 31 29 27

GFSFLT1_925_spd_111.txt.gz
Wind_Speed
9 10 11 13 12 14 17 14 11 12 11 10 8 7 7 8 4 4 6 5 5 6 6 6 8 8 8 8 8 8 8 8 8
11 12 11 14 14 15 17 13 13 13 12 10 8 7 7 3 4 5 5 5 6 6 6 6 6 7 7 7 7 7 7 7 8
13 13 13 14 14 14 17 15 13 14 13 11 8 7 8 3 4 4 5 7 8 6 5 4 5 5 5 6 5 6 6 6 7
13 14 16 17 16 16 18 14 14 15 13 13 11 9 8 6 5 5 5 7 8 7 5 4 4 3 3 4 4 4 4 5 6
13 14 15 16 16 18 20 15 15 15 13 13 12 10 9 7 6 6 5 7 7 7 6 5 4 4 3 3 3 3 3 3 4
14 14 15 17 17 19 20 15 15 16 14 13 12 11 8 7 8 7 10 9 7 6 6 5 5 5 4 3 3 3 3 3 3
16 15 17 18 18 20 20 17 14 17 12 13 15 14 10 10 9 9 11 12 9 8 7 6 5 5 5 4 4 3 3 2 1
16 15 12 17 19 20 19 16 14 15 16 15 13 14 14 12 11 11 12 13 12 11 9 8 8 7 7 6 6 5 4 4 3
15 17 17 16 17 21 19 19 16 17 18 17 16 16 15 13 11 12 13 13 13 12 13 12 11 10 10 9 9 9 8 7 7
14 16 14 13 16 18 21 22 20 19 18 20 19 17 16 14 13 11 13 13 15 14 14 14 14 14 13 13 12 12 11 11 10
15 15 15 16 17 18 20 19 19 17 18 18 18 19 17 16 15 14 13 13 16 17 17 17 17 17 16 15 15 14 14 14 14
13 13 15 15 17 17 18 17 18 18 18 17 18 19 19 19 17 17 15 14 14 17 20 20 20 19 18 18 18 18 17 17 17
12 12 13 12 11 13 14 17 21 21 20 23 22 20 20 20 19 18 18 18 16 16 18 22 22 21 20 19 18 19 19 18 17
15 12 12 12 12 13 14 17 18 17 19 21 22 22 21 23 21 21 22 21 20 17 18 19 22 25 23 22 20 21 20 19 17
13 14 10 19 15 13 16 19 18 21 18 20 21 20 21 20 22 21 23 25 23 21 21 19 20 23 27 26 25 23 22 19 19
17 14 12 18 18 17 18 20 18 19 21 14 17 20 25 26 26 27 25 23 24 23 23 22 21 19 21 26 30 28 26 24 23
18 17 19 16 20 17 18 20 16 18 18 10 11 4 12 28 31 29 30 29 26 25 26 27 27 26 24 25 29 31 30 28 25
17 17 18 22 20 18 18 19 21 19 20 26 13 3 6 8 18 30 33 32 31 33 32 35 34 30 29 28 29 30 32 32 30
16 17 17 20 20 21 21 21 21 22 20 18 23 24 12 3 5 14 19 29 30 31 31 30 30 28 28 33 34 35 33 31 29
7 12 14 17 18 21 22 21 21 22 21 21 16 17 20 20 7 8 10 12 21 24 27 25 23 24 28 29 33 37 34 29 28

GFSFLT1_925_spd_114.txt.gz
Wind_Speed
8 7 8 10 9 10 13 12 9 9 10 10 8 7 7 7 5 3 3 6 5 7 7 6 8 8 8 8 8 8 8 8 8
8 8 8 10 13 10 14 13 10 10 11 9 8 8 9 5 6 1 4 3 6 7 7 7 7 8 7 7 7 7 7 8 7
10 10 10 10 12 10 14 14 11 12 12 10 8 7 10 9 5 4 6 3 6 6 6 6 6 7 7 6 6 6 6 6 7
10 11 12 13 13 12 15 16 13 13 12 11 10 8 10 8 8 7 8 7 7 5 4 4 5 5 5 5 5 5 5 5 5
13 13 13 15 15 14 15 17 13 14 13 13 13 10 10 10 4 9 10 8 8 7 5 4 3 3 3 3 3 4 4 4 3
14 15 16 15 15 15 16 18 15 14 14 13 13 12 11 11 7 9 11 8 9 9 8 7 5 4 3 3 3 3 3 2 2
16 17 19 15 15 15 17 19 16 15 16 16 15 15 12 11 11 12 12 10 10 10 9 9 8 7 6 5 4 4 3 3 2
16 17 12 17 15 16 18 19 19 19 18 16 17 17 16 14 14 14 14 13 12 12 11 10 9 9 9 8 7 7 6 5 5
16 17 14 17 18 19 20 22 23 21 19 21 20 15 14 16 13 16 16 15 14 14 14 12 12 11 10 10 10 10 9 8 8
15 15 15 15 18 18 22 23 25 23 22 21 22 20 19 16 16 15 15 15 14 17 16 15 14 14 14 13 13 12 12 12 11
18 19 19 12 16 18 20 24 27 25 23 24 22 19 20 18 19 18 17 16 15 18 19 19 18 17 16 16 16 15 15 14 14
18 17 18 19 18 19 19 21 22 24 21 21 21 20 22 21 19 17 18 19 18 18 21 22 21 21 20 19 19 19 17 16 16
21 17 15 14 15 14 16 19 22 21 24 26 22 25 23 22 21 21 25 23 23 20 19 22 24 24 23 21 20 21 20 20 18
25 20 20 16 9 7 8 14 16 18 22 23 25 27 29 27 25 26 23 23 25 25 22 22 22 25 26 24 22 21 21 20 20
26 24 18 13 11 11 9 14 17 17 16 17 20 21 25 26 29 31 31 27 27 29 27 23 23 24 25 28 27 24 23 23 22
23 22 20 16 13 18 15 12 18 19 17 17 18 23 25 28 25 27 30 31 33 31 33 32 30 28 28 26 30 31 28 26 25
25 24 20 15 16 19 17 14 18 17 13 7 4 2 7 26 31 32 35 35 32 31 27 30 32 30 31 29 29 31 33 30 28
31 25 24 20 19 18 18 15 19 16 14 20 10 2 4 4 18 30 33 34 34 36 39 32 30 31 34 33 32 31 31 31 32
26 25 15 13 13 15 19 16 19 18 18 16 25 27 10 3 3 10 20 31 32 33 34 38 44 43 41 41 41 38 35 33 29
25 14 12 8 8 11 12 16 19 23 23 23 20 20 20 19 8 9 9 17 19 30 29 35 35 37 41 42 42 40 39 34 31

GFSFLT1_925_spd_117.txt.gz
Wind_Speed
6 5 6 7 7 8 11 11 8 7 9 10 10 10 11 8 7 6 4 1 5 7 7 7 8 9 8 8 8 8 8 8 7
7 7 7 8 11 9 12 12 11 9 11 10 9 9 10 7 6 5 5 3 4 7 6 7 7 7 7 7 7 7 7 7 8
9 10 10 9 11 11 11 14 12 11 12 12 10 10 11 8 5 8 6 5 6 8 8 7 6 6 6 6 6 6 6 6 6
11 11 12 12 12 12 12 16 14 12 14 13 12 11 13 11 8 8 7 6 6 9 8 7 7 7 6 5 5 5 5 5 5
14 13 14 14 15 15 15 16 17 14 15 15 13 11 13 14 9 11 10 8 8 9 8 8 7 7 6 6 6 5 5 5 5
17 17 17 17 17 17 17 17 19 16 16 17 16 15 14 15 11 11 11 11 9 9 9 8 8 7 7 6 6 5 5 5 5
20 18 17 18 17 17 17 18 20 19 19 19 17 18 16 17 14 14 14 14 12 12 12 11 10 9 8 7 7 7 6 6 5
15 19 19 18 20 18 17 19 22 23 21 20 21 19 18 18 18 16 19 16 14 13 13 12 12 11 10 10 9 9 8 8 7
20 20 21 19 22 21 21 23 25 25 24 22 22 21 21 21 20 16 21 18 16 15 17 16 15 14 13 13 12 12 11 11 10
25 21 20 19 22 23 23 25 27 28 27 25 26 24 23 18 23 18 23 20 18 16 19 18 17 17 16 16 15 15 14 14 14
23 26 23 22 19 23 23 25 28 29 28 27 25 29 25 25 21 21 20 21 20 18 19 21 20 19 19 19 18 18 17 17 16
28 25 26 25 18 20 22 22 25 28 28 29 27 28 28 24 23 27 25 23 23 21 20 22 24 24 22 21 21 21 19 18 18
31 30 29 27 23 21 22 23 24 25 25 28 29 31 33 30 24 19 23 23 24 24 23 21 24 26 25 24 24 24 23 22 22
32 28 28 27 25 22 21 17 19 17 16 22 26 24 20 25 29 21 19 21 25 26 26 26 25 26 29 28 26 26 26 26 25
34 30 29 27 24 22 20 17 13 12 10 14 19 21 22 28 30 31 31 27 27 24 28 29 29 28 27 30 32 29 29 29 28
37 35 34 28 26 24 19 15 15 14 15 14 16 22 22 22 25 28 30 33 35 33 32 31 34 33 32 30 31 34 34 33 31
32 32 33 33 28 25 22 18 15 13 14 8 5 0 7 20 28 31 33 37 35 34 35 37 35 37 39 36 34 35 34 36 35
36 36 35 35 31 26 24 21 18 17 15 19 8 2 5 3 13 27 34 34 34 36 37 36 34 33 37 41 36 34 34 33 36
22 28 37 36 28 20 20 19 16 16 13 14 21 25 4 3 2 11 21 29 28 32 33 34 36 40 36 36 39 38 36 35 35
11 15 26 28 19 19 10 12 12 8 9 12 12 15 18 23 8 5 7 15 20 21 25 29 32 32 34 39 43 43 43 48 43

GFSFLT1_925_spd_120.txt.gz
Wind_Speed
8 6 8 9 9 8 10 11 11 8 9 11 14 14 9 4 7 9 7 4 5 8 7 7 7 7 7 6 7 7 6 6 6
8 9 9 10 11 10 11 12 12 10 11 12 14 14 13 8 7 9 7 5 5 7 7 8 8 8 8 7 6 6 6 6 6
11 12 12 12 12 14 11 15 15 13 13 14 13 13 14 11 9 10 9 6 6 8 8 8 8 7 7 6 6 6 6 6 5
13 13 13 14 14 14 15 16 17 16 14 16 15 14 15 13 10 12 12 8 9 10 9 8 8 8 7 7 6 6 5 5 5
17 16 16 16 17 16 17 17 19 19 16 17 17 16 15 17 13 12 14 11 11 12 11 10 9 9 8 7 7 6 6 5 5
20 19 19 18 18 18 19 19 19 21 19 18 19 18 18 19 18 15 15 15 14 13 13 13 12 11 10 9 8 8 7 7 7
22 22 21 21 20 20 21 21 21 22 23 22 21 22 21 20 21 18 16 18 16 15 14 14 14 13 12 11 11 10 9 9 8
24 25 23 23 22 23 22 22 23 26 27 25 24 24 22 22 22 21 19 20 19 18 16 17 16 16 15 14 13 12 12 11 11
26 24 24 24 25 24 26 25 25 27 30 29 26 25 25 24 24 25 22 23 24 21 19 18 19 18 17 16 15 14 14 13 12
26 25 30 28 28 28 30 29 29 29 31 31 29 28 27 27 27 27 26 25 28 25 22 21 20 20 19 19 18 17 16 16 15
33 34 32 32 31 30 30 31 30 30 32 33 33 32 30 29 27 26 30 26 31 29 24 22 22 21 20 20 20 20 19 18 18
31 34 36 32 28 29 29 30 30 29 32 34 34 34 32 33 30 30 27 29 31 31 27 24 24 24 22 22 22 22 22 21 21
32 32 35 32 32 31 30 31 29 27 29 32 34 33 30 31 33 30 31 32 31 33 31 28 25 25 26 25 24 25 24 24 23
29 32 34 35 37 36 33 31 30 27 25 27 28 26 30 26 23 21 15 16 29 32 34 31 29 28 25 27 27 28 28 29 27
26 30 32 34 36 36 35 33 31 29 27 18 17 17 18 16 20 29 29 33 26 24 28 32 32 31 29 28 28 30 31 30 30
28 29 31 32 34 36 35 34 28 24 19 13 15 19 19 23 25 22 27 33 34 32 29 28 29 33 34 34 30 30 32 34 33
26 26 27 27 28 34 33 27 20 22 22 10 4 2 5 18 27 28 26 27 30 36 41 35 35 36 37 36 35 34 35 33 35
19 22 22 23 27 28 32 29 26 17 23 21 7 2 4 1 11 23 20 24 33 34 33 34 35 36 36 35 36 37 40 37 37
16 12 11 14 15 25 31 33 29 23 19 14 24 15 2 2 3 7 15 24 28 26 23 27 30 28 32 36 38 38 36 40 41
22 16 13 11 5 8 19 31 33 30 22 17 6 5 5 7 5 4 4 12 16 18 17 23 27 27 28 30 33 35 39 38 40

GFSFLT1_925_spd_123.txt.gz
Wind_Speed
8 9 8 9 11 10 11 11 13 9 8 10 13 12 10 7 5 8 7 3 6 7 7 6 6 6 6 6 6 5 5 5 6
11 10 11 11 11 12 12 12 14 12 11 12 15 15 12 8 7 9 8 6 6 7 7 7 7 7 6 6 5 4 5 5 5
13 12 13 13 14 13 15 15 16 16 13 13 15 16 15 12 10 10 10 8 8 9 8 8 8 7 7 7 6 5 5 5 4
16 16 15 15 16 16 16 17 18 19 17 15 16 17 16 16 13 12 12 10 10 10 11 10 10 9 8 7 7 6 5 5 5
19 19 19 18 18 18 17 19 19 21 20 17 18 18 18 18 17 14 15 13 12 12 12 11 11 11 10 9 8 8 7 6 6
22 23 22 22 21 20 20 21 22 21 21 21 20 20 21 21 21 19 16 17 15 14 14 13 13 12 12 11 10 9 9 8 7
23 25 24 24 25 25 24 24 24 23 25 25 24 24 24 23 22 23 19 20 18 17 17 16 16 15 14 13 12 12 11 10 9
24 26 26 27 27 28 28 26 26 27 27 29 29 28 26 27 26 25 23 21 22 20 19 18 18 17 17 15 14 13 13 12 12
26 26 28 29 27 27 29 30 30 29 30 31 31 31 29 28 27 28 27 25 23 23 22 21 20 20 19 18 17 16 15 15 14
25 28 30 31 30 32 31 33 33 33 32 32 33 34 33 31 29 29 28 29 26 26 26 23 22 22 21 20 19 18 18 17 17
27 29 30 31 33 38 35 38 36 36 36 34 35 36 36 35 31 31 30 30 31 29 31 29 25 23 23 22 22 21 20 20 19
26 29 31 31 31 33 36 36 36 34 35 36 36 36 37 37 35 31 30 30 31 33 32 33 31 26 24 24 23 24 24 22 22
26 29 30 29 31 31 30 34 30 30 30 31 34 34 35 37 37 31 29 32 31 32 34 36 33 30 28 25 25 25 26 24 24
22 24 26 27 28 29 27 27 28 28 30 32 30 28 29 31 29 24 25 23 26 28 31 37 37 33 30 29 27 28 29 29 27
24 27 29 27 27 23 24 27 29 29 32 31 28 27 26 28 25 23 23 31 26 22 22 23 30 34 34 31 30 29 31 31 31
22 25 28 27 24 22 23 25 26 25 29 19 17 22 24 24 25 24 23 28 36 30 32 29 24 26 33 34 36 34 32 32 33
24 25 28 26 27 23 22 23 20 22 25 17 3 3 7 21 28 29 28 26 25 27 25 31 38 30 33 35 38 38 38 34 33
23 23 23 24 23 22 20 20 20 20 21 27 10 2 4 3 12 25 26 30 30 28 23 28 32 35 37 36 37 37 37 37 40
18 23 19 21 18 13 18 16 21 20 16 13 27 14 3 3 1 7 19 26 25 26 26 28 30 23 21 22 26 30 33 32 34
23 21 20 21 22 16 7 4 10 14 22 17 12 17 19 16 2 3 3 10 15 20 18 16 15 15 17 22 22 25 28 32 31

GFSFLT1_925_spd_126.txt.gz
Wind_Speed
8 9 9 9 10 12 12 11 11 10 7 8 10 12 12 10 7 7 9 5 5 5 6 5 5 6 6 6 5 5 5 5 7
11 12 11 11 12 12 12 11 12 14 11 11 12 14 13 11 9 8 10 7 6 7 7 7 6 6 6 6 6 5 5 6 7
15 14 13 13 14 14 14 14 15 16 15 13 14 17 17 15 12 11 12 9 8 9 9 8 8 8 7 7 6 6 6 6 6
17 18 17 17 16 16 17 16 18 18 19 17 15 17 19 19 17 14 14 12 11 11 11 10 10 9 9 8 8 7 6 6 7
18 19 20 20 20 20 19 19 19 22 21 22 19 18 20 21 20 18 16 16 13 13 13 13 12 11 11 10 9 8 8 7 7
20 20 21 22 22 22 22 22 22 22 23 22 23 22 23 24 23 22 19 18 17 15 16 15 14 14 13 12 11 10 9 9 8
19 19 21 22 23 24 24 25 25 25 27 25 25 27 26 26 25 24 23 20 20 18 18 17 16 16 15 14 13 12 11 11 10
20 21 22 22 23 25 27 28 29 30 30 29 29 30 30 28 28 27 25 25 23 22 21 21 19 18 18 17 15 15 14 13 13
21 22 23 24 25 26 26 28 30 32 32 31 32 33 34 32 32 30 28 28 27 24 23 24 21 20 20 19 18 17 16 16 15
21 22 23 24 25 26 29 31 32 33 34 33 34 36 36 35 35 33 31 30 29 28 25 26 25 22 21 21 20 19 18 18 18
20 21 23 25 25 25 27 27 29 33 34 37 36 37 37 36 37 36 33 29 30 30 28 27 26 24 23 23 22 22 21 20 20
16 19 21 22 24 25 27 29 27 28 29 30 36 36 38 38 38 38 36 31 30 30 31 31 31 30 26 24 24 24 24 23 22
16 18 20 21 22 22 19 20 22 26 26 25 28 31 33 35 37 38 38 35 33 32 31 31 34 32 32 27 25 26 25 26 25
17 19 20 21 23 25 23 20 22 26 28 25 27 29 28 30 31 33 35 36 33 34 33 30 27 30 34 32 28 27 28 28 29
19 17 19 20 22 24 26 26 21 22 25 27 26 30 30 32 32 31 31 29 30 32 36 38 34 33 32 31 30 29 29 28 29
22 23 22 23 24 24 27 29 25 22 23 20 20 23 25 26 28 28 30 29 29 30 31 34 34 37 34 35 35 33 27 28 30
19 22 23 21 21 24 26 26 24 23 21 13 8 4 7 21 25 25 27 30 29 29 32 33 31 31 35 38 36 34 33 32 31
19 19 20 20 20 20 23 22 23 20 18 21 10 3 4 1 11 24 26 24 30 30 26 27 31 30 31 34 32 33 36 34 33
21 22 22 23 24 26 22 22 20 22 20 14 18 24 11 3 3 8 16 22 23 24 28 28 27 27 24 25 27 23 25 25 29
22 22 23 24 25 27 24 24 18 16 14 17 10 6 7 12 5 6 2 11 20 24 24 24 23 24 18 12 12 11 13 16 19